FW7316 Weather Reports


Display with metric or nautical units.
time (UTC)temp
F
wind
direction
speed
MPH
gust
MPH
rain 1hr
in
rain 24hr
in
rain mn
in
humidity
%
barometer
mb
20260906105409 89 86 5.0 8.0 0.00 0.00 0.00 53 1019.7
20260906105306 89 83 6.0 8.0 0.00 0.00 0.00 53 1019.8
20260906105205 89 65 0.0 11.0 0.00 0.00 0.00 52 1019.8
20260906105108 89 65 2.0 11.0 0.00 0.00 0.00 52 1019.8
20260906105006 89 65 2.0 11.0 0.00 0.00 0.00 53 1019.8
20260906104808 89 65 1.0 11.0 0.00 0.00 0.00 51 1019.8
20260906104705 89 65 0.0 11.0 0.00 0.00 0.00 52 1019.8
20260906104606 89 65 3.0 11.0 0.00 0.00 0.00 53 1019.9
20260906104509 89 32 1.0 11.0 0.00 0.00 0.00 53 1019.8
20260906104305 89 360 6.0 11.0 0.00 0.00 0.00 51 1019.9
20260906104207 89 17 8.0 11.0 0.00 0.00 0.00 52 1019.9
20260906104105 89 27 6.0 9.0 0.00 0.00 0.00 53 1019.9
20260906104005 89 78 4.0 11.0 0.00 0.00 0.00 53 1019.9
20260906103908 89 58 8.0 11.0 0.00 0.00 0.00 53 1019.8
20260906103805 89 80 2.0 12.0 0.00 0.00 0.00 53 1019.9
20260906103705 89 90 3.0 12.0 0.00 0.00 0.00 52 1019.9
20260906103608 89 74 3.0 12.0 0.00 0.00 0.00 52 1019.9
20260906103506 89 47 5.0 12.0 0.00 0.00 0.00 53 1019.9
20260906103405 89 67 2.0 12.0 0.00 0.00 0.00 54 1019.9
20260906103308 89 104 2.0 12.0 0.00 0.00 0.00 55 1019.9
20260906103205 89 84 6.0 12.0 0.00 0.00 0.00 55 1019.9
20260906103105 89 32 2.0 12.0 0.00 0.00 0.00 55 1019.9
20260906103008 89 88 8.0 12.0 0.00 0.00 0.00 55 1019.9
20260906102905 89 109 9.0 12.0 0.00 0.00 0.00 56 1019.9
20260906102805 88 78 10.0 12.0 0.00 0.00 0.00 56 1019.9
20260906102707 88 94 7.0 12.0 0.00 0.00 0.00 56 1019.9
20260906102604 88 80 5.0 12.0 0.00 0.00 0.00 56 1019.9
20260906102408 88 41 5.0 12.0 0.00 0.00 0.00 58 1019.9
20260906102306 88 84 8.0 8.0 0.00 0.00 0.00 57 1020.0
20260906102204 88 9 2.0 7.0 0.00 0.00 0.00 58 1020.0
20260906102006 88 9 2.0 10.0 0.00 0.00 0.00 57 1020.0
20260906101904 88 9 2.0 10.0 0.00 0.00 0.00 58 1020.0
20260906101705 88 333 3.0 10.0 0.00 0.00 0.00 56 1020.1
20260906101605 88 14 6.0 10.0 0.00 0.00 0.00 57 1020.0
20260906101508 88 321 2.0 10.0 0.00 0.00 0.00 59 1020.1
20260906101405 88 327 4.0 10.0 0.00 0.00 0.00 58 1020.0
20260906101306 88 339 5.0 10.0 0.00 0.00 0.00 59 1020.0
20260906101208 88 330 4.0 10.0 0.00 0.00 0.00 58 1020.0
20260906101105 88 348 3.0 10.0 0.00 0.00 0.00 57 1020.0
20260906101007 88 29 8.0 10.0 0.00 0.00 0.00 57 1020.0
20260906100908 88 5 9.0 10.0 0.00 0.00 0.00 57 1020.0
20260906100806 88 46 8.0 10.0 0.00 0.00 0.00 58 1020.0
20260906100705 88 52 3.0 9.0 0.00 0.00 0.00 58 1020.0
20260906100608 88 84 5.0 9.0 0.00 0.00 0.00 58 1020.0
20260906100505 88 85 2.0 9.0 0.00 0.00 0.00 58 1020.0
20260906100405 88 97 5.0 9.0 0.00 0.00 0.00 58 1020.0
20260906100307 88 73 5.0 9.0 0.00 0.00 0.00 58 1020.0
20260906100205 88 68 4.0 9.0 0.00 0.00 0.00 58 1020.0
20260906100118 87 51 2.0 9.0 0.00 0.00 0.00 59 1020.0
20260906100012 87 72 2.0 9.0 0.00 0.00 0.00 59 1020.0
20260906095904 87 102 9.0 9.0 0.00 0.00 0.00 59 1020.0
20260906095805 87 103 2.0 8.0 0.00 0.00 0.00 61 1020.0
20260906095707 87 76 7.0 8.0 0.00 0.00 0.00 63 1020.0
20260906095605 87 28 2.0 8.0 0.00 0.00 0.00 63 1020.0
20260906095506 87 24 5.0 8.0 0.00 0.00 0.00 64 1020.0
20260906095409 86 13 5.0 8.0 0.00 0.00 0.00 64 1020.0
20260906095306 86 360 4.0 8.0 0.00 0.00 0.00 64 1020.0
20260906095205 86 336 2.0 8.0 0.00 0.00 0.00 65 1020.1
20260906095108 86 355 6.0 8.0 0.00 0.00 0.00 64 1020.0
20260906095006 86 303 3.0 8.0 0.00 0.00 0.00 64 1020.1
20260906094905 86 300 1.0 8.0 0.00 0.00 0.00 63 1020.1
20260906094808 86 300 3.0 8.0 0.00 0.00 0.00 62 1020.1
20260906094705 86 311 3.0 8.0 0.00 0.00 0.00 63 1020.1
20260906094605 86 320 2.0 8.0 0.00 0.00 0.00 62 1020.1
20260906094406 86 351 2.0 8.0 0.00 0.00 0.00 62 1020.1
20260906094305 86 343 8.0 8.0 0.00 0.00 0.00 63 1020.2
20260906094208 86 34 2.0 8.0 0.00 0.00 0.00 62 1020.2
20260906094105 86 22 5.0 8.0 0.00 0.00 0.00 62 1020.1
20260906094006 86 19 4.0 10.0 0.00 0.00 0.00 61 1020.1
20260906093908 86 30 4.0 10.0 0.00 0.00 0.00 62 1020.1
20260906093805 86 14 7.0 10.0 0.00 0.00 0.00 62 1020.1
20260906093705 85 53 3.0 10.0 0.00 0.00 0.00 63 1020.1
20260906093608 85 69 3.0 10.0 0.00 0.00 0.00 63 1020.1
20260906093506 85 51 5.0 10.0 0.00 0.00 0.00 62 1020.1
20260906093405 85 42 6.0 10.0 0.00 0.00 0.00 61 1020.1
20260906093308 86 40 6.0 10.0 0.00 0.00 0.00 61 1020.1
20260906093204 86 40 7.0 10.0 0.00 0.00 0.00 61 1020.1
20260906093105 86 22 6.0 10.0 0.00 0.00 0.00 61 1020.1
20260906093008 86 63 8.0 10.0 0.00 0.00 0.00 63 1020.1
20260906092905 86 11 4.0 8.0 0.00 0.00 0.00 63 1020.1
20260906092805 86 15 3.0 8.0 0.00 0.00 0.00 64 1020.2
20260906092708 86 15 1.0 8.0 0.00 0.00 0.00 63 1020.1
20260906092605 86 15 0.0 8.0 0.00 0.00 0.00 64 1020.1
20260906092505 86 15 2.0 8.0 0.00 0.00 0.00 63 1020.1
20260906092407 86 15 4.0 8.0 0.00 0.00 0.00 62 1020.1
20260906092205 86 13 4.0 8.0 0.00 0.00 0.00 64 1020.2
20260906092107 85 5 6.0 8.0 0.00 0.00 0.00 64 1020.1
20260906092005 85 51 5.0 8.0 0.00 0.00 0.00 64 1020.2
20260906091905 85 5 6.0 7.0 0.00 0.00 0.00 66 1020.2
20260906091807 85 13 5.0 6.0 0.00 0.00 0.00 67 1020.2
20260906091705 85 30 2.0 7.0 0.00 0.00 0.00 70 1020.2
20260906091605 85 11 2.0 7.0 0.00 0.00 0.00 70 1020.2
20260906091508 85 331 5.0 7.0 0.00 0.00 0.00 70 1020.1
20260906091405 85 343 2.0 7.0 0.00 0.00 0.00 69 1020.1
20260906091304 85 350 3.0 7.0 0.00 0.00 0.00 69 1020.1
20260906091106 84 350 0.0 8.0 0.00 0.00 0.00 68 1020.1
20260906091006 84 350 1.0 8.0 0.00 0.00 0.00 68 1020.2
20260906090805 85 350 4.0 8.0 0.00 0.00 0.00 69 1020.2
20260906090608 85 10 0.0 8.0 0.00 0.00 0.00 68 1020.1
20260906090505 85 10 1.0 8.0 0.00 0.00 0.00 68 1020.2
20260906090405 85 10 1.0 8.0 0.00 0.00 0.00 68 1020.2
20260906090308 85 17 3.0 8.0 0.00 0.00 0.00 68 1020.2
20260906090205 85 17 3.0 8.0 0.00 0.00 0.00 69 1020.2
20260906090106 85 35 5.0 8.0 0.00 0.00 0.00 69 1020.2
20260906090012 85 55 3.0 7.0 0.00 0.00 0.00 69 1020.2
20260906085805 85 28 1.0 7.0 0.00 0.00 0.00 69 1020.2
20260906085708 85 355 2.0 7.0 0.00 0.00 0.00 70 1020.1
20260906085605 85 336 3.0 7.0 0.00 0.00 0.00 70 1020.1
20260906085506 85 44 1.0 7.0 0.00 0.00 0.00 70 1020.1
20260906085408 85 44 3.0 7.0 0.00 0.00 0.00 71 1020.1
20260906085205 85 308 5.0 7.0 0.00 0.00 0.00 71 1020.1
20260906085108 84 5 3.0 7.0 0.00 0.00 0.00 71 1020.1
20260906084906 84 331 6.0 7.0 0.00 0.00 0.00 70 1020.1
20260906084808 84 36 3.0 7.0 0.00 0.00 0.00 70 1020.1
20260906084705 84 59 1.0 7.0 0.00 0.00 0.00 70 1020.1
20260906084606 84 23 2.0 7.0 0.00 0.00 0.00 69 1020.1
20260906084508 85 25 4.0 7.0 0.00 0.00 0.00 72 1020.1
20260906084306 84 360 2.0 6.0 0.00 0.00 0.00 70 1020.1
20260906084208 84 37 5.0 6.0 0.00 0.00 0.00 71 1020.1
20260906084106 84 28 5.0 6.0 0.00 0.00 0.00 71 1020.1
20260906084005 84 40 3.0 6.0 0.00 0.00 0.00 71 1020.1
20260906083906 84 360 2.0 6.0 0.00 0.00 0.00 71 1020.1
20260906083805 84 343 1.0 6.0 0.00 0.00 0.00 71 1020.1
20260906083505 84 331 6.0 6.0 0.00 0.00 0.00 72 1020.1
20260906083405 84 331 3.0 5.0 0.00 0.00 0.00 73 1020.0
20260906083307 84 333 2.0 5.0 0.00 0.00 0.00 73 1020.1
20260906083205 83 360 5.0 5.0 0.00 0.00 0.00 73 1020.1
20260906083105 83 49 4.0 5.0 0.00 0.00 0.00 74 1020.1
20260906083008 83 321 4.0 5.0 0.00 0.00 0.00 73 1020.1
20260906082805 83 274 1.0 6.0 0.00 0.00 0.00 74 1020.0
20260906082708 83 337 2.0 6.0 0.00 0.00 0.00 74 1020.1
20260906082604 83 326 4.0 6.0 0.00 0.00 0.00 74 1020.1
20260906082505 83 314 2.0 7.0 0.00 0.00 0.00 73 1020.1
20260906082408 83 325 3.0 8.0 0.00 0.00 0.00 74 1020.1
20260906082306 83 317 3.0 8.0 0.00 0.00 0.00 74 1020.2
20260906082204 83 317 2.0 8.0 0.00 0.00 0.00 74 1020.2
20260906082005 83 317 3.0 8.0 0.00 0.00 0.00 74 1020.1
20260906081905 83 319 4.0 8.0 0.00 0.00 0.00 74 1020.1
20260906081705 83 355 2.0 8.0 0.00 0.00 0.00 73 1020.1
20260906081605 83 355 3.0 8.0 0.00 0.00 0.00 75 1020.1
20260906081507 83 346 6.0 8.0 0.00 0.00 0.00 75 1020.1
20260906081305 83 336 5.0 7.0 0.00 0.00 0.00 76 1020.1
20260906081208 82 13 3.0 7.0 0.00 0.00 0.00 75 1020.1
20260906081106 82 326 2.0 7.0 0.00 0.00 0.00 75 1020.1
20260906081006 82 318 1.0 7.0 0.00 0.00 0.00 75 1020.1
20260906080806 82 323 3.0 7.0 0.00 0.00 0.00 76 1020.1
20260906080705 82 294 6.0 7.0 0.00 0.00 0.00 76 1020.0
20260906080505 82 323 2.0 6.0 0.00 0.00 0.00 76 1020.1
20260906080405 82 319 6.0 6.0 0.00 0.00 0.00 76 1020.0
20260906080308 81 355 6.0 6.0 0.00 0.00 0.00 75 1020.0
20260906080118 81 344 5.0 6.0 0.00 0.00 0.00 76 1020.0
20260906080012 81 344 4.0 6.0 0.00 0.00 0.00 76 1020.0
20260906075707 81 301 1.0 6.0 0.00 0.00 0.00 77 1020.0
20260906075605 81 294 3.0 6.0 0.00 0.00 0.00 76 1020.0
20260906075505 81 275 2.0 6.0 0.00 0.00 0.00 76 1020.0
20260906075406 81 255 3.0 6.0 0.00 0.00 0.00 75 1020.0
20260906075205 81 288 3.0 6.0 0.00 0.00 0.00 75 1020.0
20260906075108 81 301 1.0 6.0 0.00 0.00 0.00 76 1020.0
20260906075006 81 246 3.0 6.0 0.00 0.00 0.00 76 1020.0
20260906074904 81 263 1.0 6.0 0.00 0.00 0.00 76 1020.0
20260906074807 81 340 3.0 6.0 0.00 0.00 0.00 76 1020.0
20260906074705 80 344 6.0 6.0 0.00 0.00 0.00 76 1020.0
20260906074605 80 15 4.0 6.0 0.00 0.00 0.00 75 1020.0
20260906074508 80 319 3.0 6.0 0.00 0.00 0.00 75 1020.0
20260906074404 80 331 4.0 6.0 0.00 0.00 0.00 74 1020.0
20260906074207 80 288 3.0 6.0 0.00 0.00 0.00 73 1020.0
20260906074105 80 289 5.0 6.0 0.00 0.00 0.00 72 1020.0
20260906074006 80 259 2.0 6.0 0.00 0.00 0.00 72 1020.0
20260906073805 80 274 3.0 6.0 0.00 0.00 0.00 71 1020.0
20260906073705 80 306 1.0 6.0 0.00 0.00 0.00 71 1020.0
20260906073607 80 339 3.0 6.0 0.00 0.00 0.00 71 1020.0
20260906073505 80 318 5.0 6.0 0.00 0.00 0.00 71 1019.9
20260906073404 80 298 2.0 6.0 0.00 0.00 0.00 71 1019.8
20260906073308 80 298 3.0 6.0 0.00 0.00 0.00 71 1019.8
20260906073204 80 326 4.0 6.0 0.00 0.00 0.00 71 1019.9
20260906073012 80 349 5.0 6.0 0.00 0.00 0.00 71 1019.8
20260906072906 80 355 3.0 6.0 0.00 0.00 0.00 71 1019.8
20260906072805 80 325 4.0 7.0 0.00 0.00 0.00 72 1019.8
20260906072708 79 329 3.0 7.0 0.00 0.00 0.00 72 1019.8
20260906072505 79 315 3.0 7.0 0.00 0.00 0.00 72 1019.8
20260906072407 79 329 3.0 7.0 0.00 0.00 0.00 72 1019.8
20260906072205 79 349 3.0 8.0 0.00 0.00 0.00 73 1019.8
20260906072107 79 275 5.0 8.0 0.00 0.00 0.00 73 1019.8
20260906071905 79 322 2.0 8.0 0.00 0.00 0.00 72 1019.8
20260906071807 79 283 5.0 8.0 0.00 0.00 0.00 73 1019.8
20260906071405 79 314 6.0 8.0 0.00 0.00 0.00 71 1019.7
20260906071305 79 322 4.0 8.0 0.00 0.00 0.00 72 1019.7
20260906071207 79 345 8.0 8.0 0.00 0.00 0.00 71 1019.7
20260906071105 79 299 5.0 7.0 0.00 0.00 0.00 71 1019.7
20260906071006 79 328 4.0 7.0 0.00 0.00 0.00 69 1019.7
20260906070907 79 320 4.0 6.0 0.00 0.00 0.00 68 1019.6
20260906070805 79 274 4.0 6.0 0.00 0.00 0.00 69 1019.6
20260906070705 79 335 3.0 6.0 0.00 0.00 0.00 69 1019.6
20260906070608 79 309 4.0 6.0 0.00 0.00 0.00 69 1019.6
20260906070505 79 296 1.0 6.0 0.00 0.00 0.00 68 1019.6
20260906070405 79 276 4.0 6.0 0.00 0.00 0.00 69 1019.5
20260906070307 79 296 4.0 6.0 0.00 0.00 0.00 69 1019.6
20260906070204 79 279 3.0 6.0 0.00 0.00 0.00 69 1019.6
20260906070105 79 314 4.0 6.0 0.00 0.00 0.00 69 1019.6
20260906070013 79 336 3.0 6.0 0.00 0.00 0.00 69 1019.6
20260906065906 79 314 5.0 6.0 0.00 0.00 0.00 69 1019.5
20260906065805 79 279 3.0 6.0 0.00 0.00 0.00 68 1019.5
20260906065707 79 292 3.0 6.0 0.00 0.00 0.00 69 1019.5
20260906065605 79 298 3.0 6.0 0.00 0.00 0.00 69 1019.5
20260906065306 79 321 4.0 4.0 0.00 0.00 0.00 69 1019.4
20260906065205 78 290 1.0 4.0 0.00 0.00 0.00 70 1019.4
20260906064905 78 277 2.0 4.0 0.00 0.00 0.00 68 1019.4
20260906064807 78 288 2.0 4.0 0.00 0.00 0.00 68 1019.5
20260906064705 78 292 2.0 4.0 0.00 0.00 0.00 67 1019.4
20260906064605 78 292 1.0 4.0 0.00 0.00 0.00 67 1019.4
20260906064507 78 263 3.0 4.0 0.00 0.00 0.00 66 1019.5
20260906064405 78 275 3.0 4.0 0.00 0.00 0.00 66 1019.5
20260906064305 78 275 0.0 4.0 0.00 0.00 0.00 67 1019.4
20260906064006 77 260 4.0 4.0 0.00 0.00 0.00 68 1019.5
20260906063907 77 311 1.0 2.0 0.00 0.00 0.00 67 1019.5
20260906063805 77 125 0.0 2.0 0.00 0.00 0.00 68 1019.5
20260906063607 77 36 0.0 3.0 0.00 0.00 0.00 67 1019.4
20260906063506 77 36 0.0 3.0 0.00 0.00 0.00 67 1019.4
20260906063404 76 36 0.0 3.0 0.00 0.00 0.00 67 1019.4
20260906063206 76 36 2.0 3.0 0.00 0.00 0.00 68 1019.4
20260906063105 76 70 0.0 3.0 0.00 0.00 0.00 68 1019.4
20260906063009 76 70 0.0 3.0 0.00 0.00 0.00 68 1019.4
20260906062904 76 70 0.0 3.0 0.00 0.00 0.00 68 1019.4
20260906062805 76 70 0.0 3.0 0.00 0.00 0.00 68 1019.4
20260906062707 76 70 0.0 3.0 0.00 0.00 0.00 68 1019.4
20260906062408 75 71 3.0 3.0 0.00 0.00 0.00 70 1019.4
20260906062204 75 235 2.0 3.0 0.00 0.00 0.00 70 1019.3
20260906062107 74 235 3.0 3.0 0.00 0.00 0.00 71 1019.3
20260906062005 74 235 1.0 2.0 0.00 0.00 0.00 71 1019.2
20260906061905 74 235 1.0 2.0 0.00 0.00 0.00 72 1019.3
20260906061807 73 235 1.0 2.0 0.00 0.00 0.00 72 1019.3
20260906061605 73 235 0.0 2.0 0.00 0.00 0.00 73 1019.3
20260906061508 73 235 0.0 2.0 0.00 0.00 0.00 73 1019.2
20260906061405 73 235 0.0 2.0 0.00 0.00 0.00 73 1019.2
20260906061305 72 235 1.0 2.0 0.00 0.00 0.00 74 1019.2
20260906061207 72 235 1.0 1.0 0.00 0.00 0.00 74 1019.3
20260906061006 72 235 1.0 1.0 0.00 0.00 0.00 75 1019.2
20260906060907 72 235 0.0 1.0 0.00 0.00 0.00 75 1019.2
20260906060607 71 235 1.0 1.0 0.00 0.00 0.00 76 1019.1
20260906060405 71 235 0.0 2.0 0.00 0.00 0.00 76 1019.2
20260906060307 71 235 0.0 2.0 0.00 0.00 0.00 77 1019.2
20260906060205 70 235 0.0 2.0 0.00 0.00 0.00 77 1019.1
20260906055905 70 235 0.0 2.0 0.00 0.00 0.00 78 1019.1
20260906055805 69 235 0.0 2.0 0.00 0.00 0.00 79 1019.1
20260906055707 69 235 0.0 2.0 0.00 0.00 0.00 79 1019.1
20260906055407 68 235 2.0 2.0 0.00 0.00 0.00 81 1019.1
20260906055306 68 235 1.0 2.0 0.00 0.00 0.00 81 1019.1
20260906055107 68 235 0.0 2.0 0.00 0.00 0.00 82 1019.1
20260906054905 68 235 0.0 2.0 0.00 0.00 0.00 83 1019.0
20260906054807 67 235 0.0 2.0 0.00 0.00 0.00 83 1019.1
20260906054705 67 235 0.0 2.0 0.00 0.00 0.00 84 1019.0
20260906054605 67 235 0.0 2.0 0.00 0.00 0.00 85 1019.1
20260906054508 67 235 1.0 2.0 0.00 0.00 0.00 85 1019.1
20260906054405 67 235 1.0 2.0 0.00 0.00 0.00 86 1019.0
20260906054305 67 235 1.0 2.0 0.00 0.00 0.00 86 1019.0
20260906054207 66 235 2.0 2.0 0.00 0.00 0.00 86 1019.0
20260906054105 66 235 1.0 2.0 0.00 0.00 0.00 86 1018.9
20260906054006 66 235 0.0 2.0 0.00 0.00 0.00 86 1018.9
20260906053907 66 235 0.0 2.0 0.00 0.00 0.00 87 1019.0
20260906053805 66 235 0.0 2.0 0.00 0.00 0.00 87 1018.9
20260906053705 66 235 0.0 2.0 0.00 0.00 0.00 87 1018.9
20260906053607 66 235 0.0 2.0 0.00 0.00 0.00 87 1019.0
20260906053504 65 235 1.0 2.0 0.00 0.00 0.00 87 1019.0
20260906053405 65 235 2.0 2.0 0.00 0.00 0.00 87 1019.0
20260906053205 65 235 0.0 2.0 0.00 0.00 0.00 87 1019.0
20260906052905 65 235 0.0 2.0 0.00 0.00 0.00 87 1019.0
20260906052805 65 235 0.0 2.0 0.00 0.00 0.00 87 1018.9
20260906052707 65 235 1.0 2.0 0.00 0.00 0.00 87 1018.9
20260906052506 65 235 0.0 2.0 0.00 0.00 0.00 87 1018.9
20260906052407 65 235 0.0 2.0 0.00 0.00 0.00 87 1018.9
20260906052306 65 235 0.0 2.0 0.00 0.00 0.00 87 1018.8
20260906052204 65 235 0.0 2.0 0.00 0.00 0.00 87 1018.8
20260906052107 64 235 0.0 2.0 0.00 0.00 0.00 87 1018.8
20260906052006 64 235 1.0 2.0 0.00 0.00 0.00 87 1018.8
20260906051904 64 235 1.0 2.0 0.00 0.00 0.00 87 1018.8
20260906051705 64 235 0.0 2.0 0.00 0.00 0.00 87 1018.8
20260906051604 64 235 0.0 2.0 0.00 0.00 0.00 87 1018.8
20260906051508 64 235 2.0 2.0 0.00 0.00 0.00 87 1018.8
20260906051405 64 235 1.0 2.0 0.00 0.00 0.00 87 1018.8
20260906051304 64 235 1.0 2.0 0.00 0.00 0.00 86 1018.8
20260906051105 64 235 1.0 3.0 0.00 0.00 0.00 86 1018.7
20260906051006 64 235 1.0 3.0 0.00 0.00 0.00 86 1018.7
20260906050704 64 235 1.0 3.0 0.00 0.00 0.00 86 1018.7
20260906050607 64 235 2.0 3.0 0.00 0.00 0.00 86 1018.7
20260906050405 64 235 2.0 3.0 0.00 0.00 0.00 86 1018.6
20260906050307 64 235 2.0 3.0 0.00 0.00 0.00 86 1018.6
20260906050205 64 235 2.0 3.0 0.00 0.00 0.00 86 1018.6
20260906050105 64 235 2.0 3.0 0.00 0.00 0.00 86 1018.6
20260906050012 64 235 2.0 2.0 0.00 0.00 0.00 85 1018.6
20260906045905 64 236 0.0 1.0 0.00 0.00 0.00 85 1018.6
20260906045708 64 236 1.0 1.0 0.00 0.00 0.00 85 1018.6
20260906045505 64 236 1.0 1.0 0.00 0.00 0.00 86 1018.6
20260906045408 64 236 0.0 1.0 0.00 0.00 0.00 86 1018.6
20260906045205 64 236 0.0 2.0 0.00 0.00 0.00 85 1018.6
20260906045106 64 236 0.0 2.0 0.00 0.00 0.00 86 1018.5
20260906044807 64 236 0.0 2.0 0.00 0.00 0.00 86 1018.6
20260906044705 64 236 1.0 2.0 0.00 0.00 0.00 86 1018.6
20260906044507 64 236 0.0 2.0 0.00 0.00 0.00 85 1018.6
20260906044405 64 236 0.0 2.0 0.00 0.00 0.00 85 1018.5
20260906044304 64 236 1.0 2.0 0.00 0.00 0.00 85 1018.5
20260906044207 64 236 2.0 2.0 0.00 0.00 0.00 85 1018.5
20260906044105 64 236 0.0 2.0 0.00 0.00 0.00 85 1018.5
20260906044005 64 236 0.0 2.0 0.00 0.00 0.00 85 1018.5
20260906043805 64 236 0.0 3.0 0.00 0.00 0.00 85 1018.5
20260906043705 64 236 1.0 3.0 0.00 0.00 0.00 85 1018.5
20260906043607 64 236 1.0 3.0 0.00 0.00 0.00 85 1018.5
20260906043505 64 236 1.0 3.0 0.00 0.00 0.00 85 1018.4
20260906043405 64 236 1.0 3.0 0.00 0.00 0.00 85 1018.4
20260906043308 64 236 0.0 3.0 0.00 0.00 0.00 85 1018.4
20260906043206 64 236 0.0 3.0 0.00 0.00 0.00 85 1018.4
20260906043105 64 236 0.0 3.0 0.00 0.00 0.00 85 1018.4
20260906043009 64 236 1.0 3.0 0.00 0.00 0.00 85 1018.4
20260906042905 64 236 2.0 3.0 0.00 0.00 0.00 85 1018.3
20260906042806 64 236 2.0 3.0 0.00 0.00 0.00 85 1018.3
20260906042708 64 236 2.0 3.0 0.00 0.00 0.00 85 1018.4
20260906042605 64 236 1.0 3.0 0.00 0.00 0.00 85 1018.4
20260906042505 64 236 1.0 3.0 0.00 0.00 0.00 85 1018.3
20260906042407 64 236 1.0 4.0 0.00 0.00 0.00 85 1018.3
20260906042306 64 236 1.0 4.0 0.00 0.00 0.00 85 1018.3
20260906042106 64 236 3.0 4.0 0.00 0.00 0.00 85 1018.2
20260906041904 64 236 2.0 4.0 0.00 0.00 0.00 85 1018.2
20260906041806 64 236 2.0 4.0 0.00 0.00 0.00 86 1018.3
20260906041604 64 236 1.0 4.0 0.00 0.00 0.00 86 1018.2
20260906041508 64 236 2.0 4.0 0.00 0.00 0.00 86 1018.2
20260906041404 64 236 3.0 4.0 0.00 0.00 0.00 86 1018.2
20260906041305 63 236 3.0 4.0 0.00 0.00 0.00 86 1018.1
20260906041207 63 236 3.0 4.0 0.00 0.00 0.00 86 1018.2
20260906041104 63 236 3.0 4.0 0.00 0.00 0.00 86 1018.2
20260906041005 63 236 3.0 4.0 0.00 0.00 0.00 86 1018.2
20260906040907 63 236 4.0 4.0 0.00 0.00 0.00 86 1018.2
20260906040805 63 236 4.0 4.0 0.00 0.00 0.00 86 1018.1
20260906040705 63 236 4.0 4.0 0.00 0.00 0.00 86 1018.2
20260906040607 63 236 3.0 4.0 0.00 0.00 0.00 86 1018.2
20260906040504 63 236 3.0 4.0 0.00 0.00 0.00 86 1018.1
20260906040404 63 236 3.0 4.0 0.00 0.00 0.00 86 1018.2
20260906040308 63 236 3.0 4.0 0.00 0.00 0.00 86 1018.1
20260906040205 63 236 3.0 4.0 0.00 0.00 0.00 86 1018.1
20260906040011 63 236 3.0 4.0 0.00 0.00 0.00 86 1018.1
20260906035905 63 236 3.0 3.0 0.00 0.00 0.00 86 1018.1
20260906035805 63 236 2.0 3.0 0.00 0.00 0.00 86 1018.1
20260906035708 63 236 2.0 3.0 0.00 0.00 0.00 86 1018.1
20260906035407 63 236 2.0 3.0 0.00 0.00 0.00 86 1018.1
20260906035306 63 236 2.0 3.0 0.00 0.00 0.00 86 1018.1
20260906035205 63 236 2.0 3.0 0.00 0.00 0.00 86 1018.1
20260906035110 63 236 2.0 3.0 0.00 0.00 0.00 86 1018.1
20260906035005 63 236 2.0 4.0 0.00 0.00 0.00 86 1018.1
20260906034905 63 236 2.0 4.0 0.00 0.00 0.00 86 1018.1
20260906034807 63 236 1.0 4.0 0.00 0.00 0.00 86 1018.0
20260906034705 63 236 1.0 4.0 0.00 0.00 0.00 86 1017.9
20260906034605 64 236 2.0 4.0 0.00 0.00 0.00 86 1018.0
20260906034507 64 236 2.0 4.0 0.00 0.00 0.00 86 1017.9
20260906034304 64 236 2.0 4.0 0.00 0.00 0.00 85 1017.9
20260906034105 64 236 3.0 4.0 0.00 0.00 0.00 85 1017.9
20260906033907 64 190 3.0 4.0 0.00 0.00 0.00 85 1017.9
20260906033805 64 190 2.0 4.0 0.00 0.00 0.00 85 1017.9
20260906033607 64 190 3.0 4.0 0.00 0.00 0.00 85 1017.8
20260906033505 64 190 3.0 5.0 0.00 0.00 0.00 85 1017.8
20260906033307 64 190 3.0 5.0 0.00 0.00 0.00 85 1017.9
20260906033105 64 190 2.0 6.0 0.00 0.00 0.00 85 1017.9
20260906032905 64 190 3.0 6.0 0.00 0.00 0.00 85 1017.9
20260906032806 64 190 4.0 6.0 0.00 0.00 0.00 85 1017.9
20260906032707 64 190 3.0 6.0 0.00 0.00 0.00 85 1017.9
20260906032605 64 190 4.0 6.0 0.00 0.00 0.00 85 1017.9
20260906032505 64 190 4.0 6.0 0.00 0.00 0.00 85 1017.9
20260906032407 64 190 4.0 6.0 0.00 0.00 0.00 85 1017.9
20260906032306 64 190 4.0 6.0 0.00 0.00 0.00 85 1017.9
20260906032205 64 190 5.0 8.0 0.00 0.00 0.00 85 1017.8
20260906032107 64 190 4.0 8.0 0.00 0.00 0.00 85 1017.8
20260906032007 64 190 5.0 8.0 0.00 0.00 0.00 85 1017.9
20260906031905 64 190 5.0 8.0 0.00 0.00 0.00 85 1017.9
20260906031806 64 190 5.0 8.0 0.00 0.00 0.00 85 1017.8
20260906031705 64 190 5.0 8.0 0.00 0.00 0.00 85 1017.9
20260906031605 64 190 6.0 8.0 0.00 0.00 0.00 85 1017.9
20260906031405 64 185 6.0 8.0 0.00 0.00 0.00 85 1017.9
20260906031305 64 181 5.0 8.0 0.00 0.00 0.00 85 1017.9
20260906031206 64 180 6.0 7.0 0.00 0.00 0.00 85 1017.9
20260906031006 64 184 7.0 7.0 0.00 0.00 0.00 85 1018.0
20260906030907 64 187 6.0 7.0 0.00 0.00 0.00 85 1017.9
20260906030805 64 187 5.0 7.0 0.00 0.00 0.00 84 1017.9
20260906030705 64 187 5.0 7.0 0.00 0.00 0.00 84 1017.9
20260906030608 64 186 6.0 7.0 0.00 0.00 0.00 84 1017.9
20260906030505 64 183 6.0 7.0 0.00 0.00 0.00 84 1017.8
20260906030405 64 184 6.0 7.0 0.00 0.00 0.00 84 1017.9
20260906030306 64 184 6.0 7.0 0.00 0.00 0.00 84 1017.9
20260906030205 64 185 6.0 6.0 0.00 0.00 0.00 84 1017.9
20260906030105 64 186 4.0 6.0 0.00 0.00 0.00 84 1017.9
20260906030012 64 186 4.0 6.0 0.00 0.00 0.00 84 1017.9
20260906025904 64 238 4.0 5.0 0.00 0.00 0.00 84 1017.9
20260906025805 64 238 4.0 5.0 0.00 0.00 0.00 84 1017.9
20260906025708 64 342 2.0 5.0 0.00 0.00 0.00 84 1018.0
20260906025605 64 342 1.0 5.0 0.00 0.00 0.00 84 1018.0
20260906025505 64 342 2.0 5.0 0.00 0.00 0.00 84 1017.9
20260906025407 64 343 2.0 5.0 0.00 0.00 0.00 84 1017.8
20260906025306 64 342 2.0 5.0 0.00 0.00 0.00 84 1017.8
20260906025204 64 343 2.0 5.0 0.00 0.00 0.00 84 1017.8
20260906024905 64 338 5.0 9.0 0.00 0.00 0.00 84 1017.9
20260906024604 64 28 0.0 9.0 0.00 0.00 0.00 84 1017.9
20260906024507 64 25 3.0 9.0 0.00 0.00 0.00 85 1017.9
20260906024303 64 332 2.0 9.0 0.00 0.00 0.00 85 1017.7
20260906024206 64 332 1.0 9.0 0.00 0.00 0.00 85 1017.8
20260906024105 64 17 2.0 9.0 0.00 0.00 0.00 85 1017.8
20260906023805 64 32 5.0 8.0 0.00 0.00 0.00 86 1017.7
20260906023704 64 36 3.0 8.0 0.00 0.00 0.00 86 1017.7
20260906023607 63 29 6.0 8.0 0.00 0.00 0.00 87 1017.8
20260906023505 63 31 7.0 8.0 0.00 0.00 0.00 87 1017.7
20260906023405 63 25 5.0 6.0 0.00 0.00 0.00 87 1017.7
20260906023308 63 22 3.0 5.0 0.00 0.00 0.00 88 1017.7
20260906023205 63 19 3.0 4.0 0.00 0.00 0.00 88 1017.6
20260906023104 63 202 4.0 4.0 0.00 0.00 0.00 88 1017.6
20260906023009 63 202 3.0 4.0 0.00 0.00 0.00 88 1017.6
20260906022904 63 202 0.0 4.0 0.00 0.00 0.00 88 1017.5
20260906022805 63 202 0.0 4.0 0.00 0.00 0.00 88 1017.5
20260906022708 63 202 1.0 4.0 0.00 0.00 0.00 88 1017.5
20260906022606 63 202 1.0 5.0 0.00 0.00 0.00 88 1017.5
20260906022505 63 202 1.0 5.0 0.00 0.00 0.00 88 1017.4
20260906022407 63 202 3.0 5.0 0.00 0.00 0.00 88 1017.4
20260906022203 63 202 3.0 5.0 0.00 0.00 0.00 88 1017.4
20260906022107 63 202 3.0 5.0 0.00 0.00 0.00 88 1017.4
20260906022005 63 202 3.0 5.0 0.00 0.00 0.00 88 1017.3
20260906021808 63 202 3.0 5.0 0.00 0.00 0.00 88 1017.3
20260906021705 63 202 3.0 5.0 0.00 0.00 0.00 88 1017.3
20260906021604 63 202 4.0 5.0 0.00 0.00 0.00 88 1017.4
20260906021404 63 202 4.0 4.0 0.00 0.00 0.00 88 1017.4
20260906021305 63 202 4.0 4.0 0.00 0.00 0.00 88 1017.4
20260906021207 63 230 3.0 4.0 0.00 0.00 0.00 88 1017.4
20260906021105 63 230 2.0 4.0 0.00 0.00 0.00 88 1017.4
20260906021005 63 230 3.0 3.0 0.00 0.00 0.00 88 1017.4
20260906020907 63 230 2.0 3.0 0.00 0.00 0.00 88 1017.4
20260906020805 63 230 2.0 3.0 0.00 0.00 0.00 87 1017.3
20260906020705 63 230 1.0 2.0 0.00 0.00 0.00 87 1017.3
20260906020607 63 230 0.0 2.0 0.00 0.00 0.00 87 1017.4
20260906020505 63 230 0.0 2.0 0.00 0.00 0.00 87 1017.4
20260906020405 63 230 1.0 2.0 0.00 0.00 0.00 87 1017.3
20260906020307 63 230 0.0 2.0 0.00 0.00 0.00 87 1017.4
20260906020205 63 230 0.0 2.0 0.00 0.00 0.00 87 1017.3
20260906020013 63 230 1.0 2.0 0.00 0.00 0.00 87 1017.4
20260906015905 63 230 1.0 2.0 0.00 0.00 0.00 87 1017.3
20260906015805 63 230 1.0 3.0 0.00 0.00 0.00 87 1017.3
20260906015708 63 230 1.0 3.0 0.00 0.00 0.00 87 1017.3
20260906015605 63 230 1.0 3.0 0.00 0.00 0.00 87 1017.3
20260906015506 64 230 1.0 3.0 0.00 0.00 0.00 87 1017.3
20260906015406 64 230 1.0 3.0 0.00 0.00 0.00 87 1017.3
20260906015205 64 230 0.0 3.0 0.00 0.00 0.00 87 1017.3
20260906015107 64 230 0.0 3.0 0.00 0.00 0.00 87 1017.3
20260906015005 64 230 1.0 3.0 0.00 0.00 0.00 87 1017.2
20260906014904 64 230 1.0 3.0 0.00 0.00 0.00 86 1017.3
20260906014807 64 230 2.0 3.0 0.00 0.00 0.00 86 1017.3
20260906014705 64 230 2.0 3.0 0.00 0.00 0.00 86 1017.2
20260906014605 64 230 3.0 3.0 0.00 0.00 0.00 86 1017.2
20260906014508 64 230 0.0 0.0 0.00 0.00 0.00 86 1017.2
20260906014304 64 230 0.0 0.0 0.00 0.00 0.00 86 1017.1
20260906014107 64 230 0.0 0.0 0.00 0.00 0.00 86 1017.1
20260906014005 64 230 0.0 0.0 0.00 0.00 0.00 86 1017.1
20260906013807 64 230 0.0 0.0 0.00 0.00 0.00 86 1017.1
20260906013705 64 230 0.0 1.0 0.00 0.00 0.00 86 1017.1
20260906013604 64 230 0.0 1.0 0.00 0.00 0.00 86 1017.1
20260906013507 64 230 0.0 1.0 0.00 0.00 0.00 86 1017.2
20260906013404 64 230 0.0 2.0 0.00 0.00 0.00 86 1017.1
20260906013304 64 230 0.0 3.0 0.00 0.00 0.00 86 1017.1
20260906013207 64 230 0.0 3.0 0.00 0.00 0.00 86 1017.1
20260906013104 64 230 0.0 3.0 0.00 0.00 0.00 86 1017.1
20260906013005 64 230 0.0 3.0 0.00 0.00 0.00 86 1017.1
20260906012907 64 230 0.0 3.0 0.00 0.00 0.00 86 1017.1
20260906012804 64 230 0.0 3.0 0.00 0.00 0.00 86 1017.1
20260906012505 64 230 0.0 3.0 0.00 0.00 0.00 85 1017.1
20260906012404 64 230 1.0 3.0 0.00 0.00 0.00 85 1017.1
20260906012307 64 230 2.0 3.0 0.00 0.00 0.00 85 1017.1
20260906012204 64 230 2.0 3.0 0.00 0.00 0.00 85 1017.1
20260906012105 64 230 2.0 2.0 0.00 0.00 0.00 85 1017.1
20260906012008 64 230 1.0 2.0 0.00 0.00 0.00 85 1017.1
20260906011904 64 230 2.0 2.0 0.00 0.00 0.00 85 1017.1
20260906011804 64 230 1.0 2.0 0.00 0.00 0.00 85 1017.1
20260906011707 64 230 2.0 2.0 0.00 0.00 0.00 85 1017.0
20260906011604 64 230 2.0 2.0 0.00 0.00 0.00 85 1017.1
20260906011505 64 230 2.0 2.0 0.00 0.00 0.00 85 1017.1
20260906011407 64 230 1.0 2.0 0.00 0.00 0.00 85 1017.1
20260906011304 64 230 1.0 2.0 0.00 0.00 0.00 85 1017.1
20260906011204 64 230 2.0 3.0 0.00 0.00 0.00 85 1017.1
20260906011107 64 230 1.0 3.0 0.00 0.00 0.00 84 1017.0
20260906011005 64 230 1.0 3.0 0.00 0.00 0.00 84 1017.0
20260906010904 64 230 1.0 3.0 0.00 0.00 0.00 84 1017.0
20260906010704 64 230 2.0 3.0 0.00 0.00 0.00 84 1017.0
20260906010604 64 230 1.0 3.0 0.00 0.00 0.00 84 1017.0
20260906010507 64 230 2.0 3.0 0.00 0.00 0.00 84 1017.0
20260906010104 64 230 2.0 3.0 0.00 0.00 0.00 84 1016.9
20260906010007 64 230 3.0 3.0 0.00 0.00 0.00 84 1016.9
20260906005804 65 230 2.0 3.0 0.00 0.00 0.00 84 1016.9
20260906005704 65 230 3.0 3.0 0.00 0.00 0.00 84 1016.9
20260906005607 65 201 3.0 3.0 0.00 0.00 0.00 84 1016.9
20260906005404 65 201 1.0 2.0 0.00 0.00 0.00 84 1016.9
20260906005106 65 201 0.0 2.0 0.00 0.00 0.00 84 1016.9
20260906005007 65 201 1.0 3.0 0.00 0.00 0.00 83 1016.9
20260906004904 65 201 1.0 3.0 0.00 0.00 0.00 83 1016.9
20260906004806 65 201 0.0 3.0 0.00 0.00 0.00 83 1016.9
20260906004707 65 201 0.0 3.0 0.00 0.00 0.00 83 1016.9
20260906004504 65 201 0.0 3.0 0.00 0.00 0.00 83 1016.9
20260906004407 65 201 0.0 4.0 0.00 0.00 0.00 83 1016.9
20260906004204 65 201 0.0 4.0 0.00 0.00 0.00 83 1016.9
20260906004107 65 201 1.0 4.0 0.00 0.00 0.00 83 1017.0
20260906004005 65 201 3.0 4.0 0.00 0.00 0.00 83 1016.9
20260906003905 65 201 2.0 4.0 0.00 0.00 0.00 83 1016.9
20260906003807 65 201 1.0 4.0 0.00 0.00 0.00 83 1017.0
20260906003705 65 201 3.0 4.0 0.00 0.00 0.00 83 1016.9
20260906003604 65 201 2.0 5.0 0.00 0.00 0.00 83 1016.9
20260906003507 65 201 3.0 5.0 0.00 0.00 0.00 83 1017.0
20260906003303 65 201 3.0 5.0 0.00 0.00 0.00 83 1017.0
20260906003104 65 201 3.0 5.0 0.00 0.00 0.00 83 1017.0
20260906003005 65 212 2.0 5.0 0.00 0.00 0.00 83 1016.9
20260906002907 65 212 2.0 5.0 0.00 0.00 0.00 83 1017.0
20260906002704 65 212 3.0 5.0 0.00 0.00 0.00 83 1016.9
20260906002607 65 212 4.0 5.0 0.00 0.00 0.00 83 1016.9
20260906002404 65 198 4.0 5.0 0.00 0.00 0.00 83 1017.0
20260906002307 65 198 4.0 5.0 0.00 0.00 0.00 83 1016.9
20260906002204 65 198 4.0 5.0 0.00 0.00 0.00 83 1017.0
20260906002104 65 198 4.0 5.0 0.00 0.00 0.00 83 1016.9
20260906002008 65 198 3.0 5.0 0.00 0.00 0.00 83 1016.9
20260906001904 65 198 4.0 5.0 0.00 0.00 0.00 83 1016.9
20260906001707 65 225 3.0 4.0 0.00 0.00 0.00 83 1016.9
20260906001604 64 225 3.0 4.0 0.00 0.00 0.00 83 1016.9
20260906001504 64 225 2.0 4.0 0.00 0.00 0.00 83 1017.0
20260906001407 64 225 2.0 4.0 0.00 0.00 0.00 83 1016.9
20260906001304 64 225 2.0 4.0 0.00 0.00 0.00 83 1017.0
20260906001205 64 225 3.0 4.0 0.00 0.00 0.00 83 1016.9
20260906001107 64 225 3.0 4.0 0.00 0.00 0.00 83 1016.9
20260906000904 64 225 3.0 4.0 0.00 0.00 0.00 83 1016.9
20260906000807 64 225 3.0 4.0 0.00 0.00 0.00 83 1016.9
20260906000704 64 225 3.0 4.0 0.00 0.00 0.00 83 1016.9
20260906000507 64 227 3.0 4.0 0.00 0.00 0.00 83 1016.9
20260906000404 64 227 3.0 4.0 0.00 0.00 0.00 82 1016.9
20260906000304 64 227 3.0 4.0 0.00 0.00 0.00 82 1017.0
20260906000207 64 227 2.0 4.0 0.00 0.00 0.00 82 1016.9
20260906000117 64 227 3.0 3.0 0.00 0.00 0.00 82 1016.9
20260906000007 64 227 3.0 3.0 0.00 0.00 0.00 82 1017.0
20260905235906 64 227 2.0 3.0 0.00 0.00 0.00 82 1016.9
20260905235804 64 227 3.0 3.0 0.00 0.00 0.00 82 1016.9
20260905235504 65 22 2.0 3.0 0.00 0.00 0.00 82 1016.9
20260905235405 65 22 2.0 3.0 0.00 0.00 0.00 81 1016.9
20260905235307 65 22 3.0 3.0 0.00 0.00 0.00 81 1016.9
20260905235205 65 22 3.0 3.0 0.00 0.00 0.00 81 1016.9
20260905235104 65 22 3.0 4.0 0.00 0.00 0.00 81 1016.9
20260905235007 65 22 3.0 4.0 0.00 0.00 0.00 81 1016.8
20260905234604 65 22 3.0 4.0 0.00 0.00 0.00 81 1016.8
20260905234305 65 22 2.0 4.0 0.00 0.00 0.00 81 1016.7
20260905234204 65 22 3.0 4.0 0.00 0.00 0.00 81 1016.8
20260905234107 65 22 3.0 4.0 0.00 0.00 0.00 81 1016.7
20260905234005 65 22 3.0 4.0 0.00 0.00 0.00 81 1016.7
20260905233904 65 22 2.0 4.0 0.00 0.00 0.00 81 1016.8
20260905233807 65 22 2.0 4.0 0.00 0.00 0.00 81 1016.7
20260905233705 65 22 2.0 4.0 0.00 0.00 0.00 81 1016.7
20260905233604 65 22 2.0 4.0 0.00 0.00 0.00 81 1016.7
20260905233507 65 22 3.0 4.0 0.00 0.00 0.00 81 1016.7
20260905233404 65 22 3.0 4.0 0.00 0.00 0.00 81 1016.7
20260905233304 65 22 3.0 4.0 0.00 0.00 0.00 81 1016.7
20260905233208 65 22 3.0 3.0 0.00 0.00 0.00 81 1016.7
20260905233104 65 22 3.0 3.0 0.00 0.00 0.00 81 1016.7
20260905233005 65 22 3.0 3.0 0.00 0.00 0.00 81 1016.7
20260905232907 65 22 2.0 3.0 0.00 0.00 0.00 81 1016.7
20260905232704 65 22 2.0 3.0 0.00 0.00 0.00 81 1016.7
20260905232607 65 22 2.0 3.0 0.00 0.00 0.00 81 1016.7
20260905232504 65 22 2.0 3.0 0.00 0.00 0.00 81 1016.7
20260905232405 65 22 1.0 3.0 0.00 0.00 0.00 81 1016.7
20260905232307 65 22 2.0 3.0 0.00 0.00 0.00 81 1016.7
20260905232204 65 22 2.0 3.0 0.00 0.00 0.00 81 1016.7
20260905232104 65 22 2.0 3.0 0.00 0.00 0.00 81 1016.8
20260905232008 65 22 2.0 3.0 0.00 0.00 0.00 81 1016.7
20260905231904 65 22 2.0 3.0 0.00 0.00 0.00 81 1016.7
20260905231707 65 22 2.0 3.0 0.00 0.00 0.00 81 1016.8
20260905231604 65 22 3.0 3.0 0.00 0.00 0.00 81 1016.8
20260905231504 65 22 2.0 3.0 0.00 0.00 0.00 81 1016.8
20260905231407 65 22 2.0 2.0 0.00 0.00 0.00 81 1016.8
20260905231304 65 22 0.0 2.0 0.00 0.00 0.00 80 1016.8
20260905231107 65 22 0.0 2.0 0.00 0.00 0.00 81 1016.8
20260905231005 65 22 0.0 2.0 0.00 0.00 0.00 81 1016.8
20260905230904 65 22 1.0 2.0 0.00 0.00 0.00 81 1016.8
20260905230807 65 22 0.0 2.0 0.00 0.00 0.00 80 1016.8
20260905230404 65 22 0.0 2.0 0.00 0.00 0.00 80 1016.8
20260905230305 65 22 1.0 2.0 0.00 0.00 0.00 80 1016.8
20260905230207 65 22 1.0 2.0 0.00 0.00 0.00 80 1016.8
20260905230105 65 22 0.0 2.0 0.00 0.00 0.00 80 1016.7
20260905230008 65 22 0.0 2.0 0.00 0.00 0.00 80 1016.8
20260905225907 65 22 0.0 2.0 0.00 0.00 0.00 80 1016.8
20260905225804 65 22 0.0 2.0 0.00 0.00 0.00 80 1016.8
20260905225704 65 22 1.0 3.0 0.00 0.00 0.00 80 1016.8
20260905225607 66 22 1.0 3.0 0.00 0.00 0.00 81 1016.7
20260905225404 66 22 0.0 3.0 0.00 0.00 0.00 81 1016.7
20260905225204 66 22 1.0 3.0 0.00 0.00 0.00 81 1016.7
20260905225104 66 22 1.0 3.0 0.00 0.00 0.00 81 1016.7
20260905225008 66 22 2.0 3.0 0.00 0.00 0.00 81 1016.7
20260905224905 66 22 2.0 3.0 0.00 0.00 0.00 81 1016.7
20260905224804 66 22 1.0 3.0 0.00 0.00 0.00 81 1016.7
20260905224707 66 22 1.0 3.0 0.00 0.00 0.00 80 1016.7
20260905224604 66 22 2.0 3.0 0.00 0.00 0.00 80 1016.6
20260905224504 66 22 2.0 3.0 0.00 0.00 0.00 80 1016.6
20260905224304 66 22 1.0 3.0 0.00 0.00 0.00 80 1016.6
20260905224205 66 22 1.0 3.0 0.00 0.00 0.00 80 1016.6
20260905224107 66 22 1.0 3.0 0.00 0.00 0.00 80 1016.5
20260905224005 66 22 0.0 3.0 0.00 0.00 0.00 80 1016.5
20260905223904 66 22 2.0 3.0 0.00 0.00 0.00 80 1016.6
20260905223807 66 22 1.0 3.0 0.00 0.00 0.00 80 1016.6
20260905223604 66 22 2.0 3.0 0.00 0.00 0.00 80 1016.5
20260905223508 67 22 3.0 3.0 0.00 0.00 0.00 80 1016.5
20260905223404 67 22 3.0 3.0 0.00 0.00 0.00 79 1016.5
20260905223304 67 22 2.0 3.0 0.00 0.00 0.00 79 1016.5
20260905223207 67 22 1.0 3.0 0.00 0.00 0.00 79 1016.5
20260905223105 67 22 0.0 3.0 0.00 0.00 0.00 79 1016.5
20260905222805 67 22 1.0 3.0 0.00 0.00 0.00 79 1016.4
20260905222704 67 22 1.0 3.0 0.00 0.00 0.00 78 1016.4
20260905222607 67 22 2.0 3.0 0.00 0.00 0.00 78 1016.4
20260905222505 67 22 2.0 3.0 0.00 0.00 0.00 78 1016.4
20260905222307 67 355 3.0 3.0 0.00 0.00 0.00 77 1016.4
20260905222203 67 355 2.0 3.0 0.00 0.00 0.00 77 1016.3
20260905222009 67 355 2.0 3.0 0.00 0.00 0.00 77 1016.3
20260905221905 67 355 2.0 3.0 0.00 0.00 0.00 77 1016.3
20260905221804 67 355 2.0 3.0 0.00 0.00 0.00 77 1016.3
20260905221707 67 355 2.0 3.0 0.00 0.00 0.00 77 1016.3
20260905221505 67 209 1.0 2.0 0.00 0.00 0.00 77 1016.3
20260905221407 67 209 1.0 2.0 0.00 0.00 0.00 77 1016.3
20260905221304 67 209 1.0 2.0 0.00 0.00 0.00 77 1016.3
20260905221204 67 209 1.0 3.0 0.00 0.00 0.00 77 1016.3
20260905221107 67 209 1.0 3.0 0.00 0.00 0.00 77 1016.3
20260905221005 67 209 1.0 3.0 0.00 0.00 0.00 76 1016.3
20260905220905 67 209 0.0 3.0 0.00 0.00 0.00 76 1016.3
20260905220807 67 209 0.0 3.0 0.00 0.00 0.00 76 1016.2
20260905220704 67 209 0.0 3.0 0.00 0.00 0.00 76 1016.3
20260905220604 67 209 1.0 3.0 0.00 0.00 0.00 76 1016.2
20260905220507 67 209 1.0 3.0 0.00 0.00 0.00 76 1016.2
20260905220404 67 209 1.0 3.0 0.00 0.00 0.00 77 1016.3
20260905220304 67 209 2.0 3.0 0.00 0.00 0.00 77 1016.2
20260905220207 67 209 2.0 3.0 0.00 0.00 0.00 77 1016.3
20260905220120 67 209 3.0 3.0 0.00 0.00 0.00 77 1016.2
20260905220010 67 209 3.0 3.0 0.00 0.00 0.00 77 1016.2
20260905215908 67 209 3.0 3.0 0.00 0.00 0.00 77 1016.3
20260905215806 67 209 2.0 3.0 0.00 0.00 0.00 78 1016.2
20260905215706 67 209 2.0 3.0 0.00 0.00 0.00 78 1016.3
20260905215608 67 209 3.0 3.0 0.00 0.00 0.00 78 1016.2
20260905215505 67 209 3.0 3.0 0.00 0.00 0.00 78 1016.2
20260905215008 67 148 2.0 2.0 0.00 0.00 0.00 77 1016.1
20260905214905 67 148 1.0 2.0 0.00 0.00 0.00 78 1016.1
20260905214806 67 148 1.0 2.0 0.00 0.00 0.00 78 1016.2
20260905214708 67 148 1.0 2.0 0.00 0.00 0.00 78 1016.1
20260905214605 67 148 1.0 2.0 0.00 0.00 0.00 78 1016.1
20260905214506 67 148 0.0 0.0 0.00 0.00 0.00 78 1016.1
20260905214407 67 148 0.0 1.0 0.00 0.00 0.00 78 1016.1
20260905214305 68 148 0.0 1.0 0.00 0.00 0.00 78 1016.1
20260905214205 68 148 0.0 1.0 0.00 0.00 0.00 78 1016.1
20260905214108 68 148 0.0 1.0 0.00 0.00 0.00 78 1016.1
20260905214006 68 148 0.0 1.0 0.00 0.00 0.00 78 1016.1
20260905213905 68 148 0.0 2.0 0.00 0.00 0.00 78 1016.1
20260905213808 68 148 0.0 2.0 0.00 0.00 0.00 78 1016.1
20260905213705 68 148 0.0 2.0 0.00 0.00 0.00 78 1016.1
20260905213605 68 148 0.0 2.0 0.00 0.00 0.00 78 1016.1
20260905213508 68 148 0.0 2.0 0.00 0.00 0.00 78 1016.1
20260905213405 68 148 0.0 3.0 0.00 0.00 0.00 77 1016.1
20260905213305 68 148 1.0 3.0 0.00 0.00 0.00 77 1016.1
20260905213208 68 148 0.0 3.0 0.00 0.00 0.00 77 1016.2
20260905213105 68 148 0.0 3.0 0.00 0.00 0.00 76 1016.2
20260905213006 68 148 1.0 3.0 0.00 0.00 0.00 76 1016.1
20260905212908 68 148 1.0 3.0 0.00 0.00 0.00 76 1016.2
20260905212806 68 148 1.0 3.0 0.00 0.00 0.00 76 1016.2
20260905212705 69 148 2.0 3.0 0.00 0.00 0.00 76 1016.2
20260905212609 69 148 1.0 3.0 0.00 0.00 0.00 76 1016.1
20260905212505 69 148 1.0 3.0 0.00 0.00 0.00 76 1016.2
20260905212206 69 148 0.0 0.0 0.00 0.00 0.00 75 1016.1
20260905212105 69 148 0.0 0.0 0.00 0.00 0.00 75 1016.1
20260905212011 69 148 0.0 1.0 0.00 0.00 0.00 75 1016.1
20260905211805 69 148 0.0 2.0 0.00 0.00 0.00 74 1016.1
20260905211709 69 148 0.0 2.0 0.00 0.00 0.00 74 1016.0
20260905211605 69 148 0.0 2.0 0.00 0.00 0.00 74 1016.0
20260905211505 69 148 0.0 2.0 0.00 0.00 0.00 74 1016.0
20260905211408 69 148 0.0 2.0 0.00 0.00 0.00 74 1016.0
20260905211306 69 148 0.0 2.0 0.00 0.00 0.00 74 1016.0
20260905211205 69 148 0.0 3.0 0.00 0.00 0.00 74 1016.0
20260905211006 69 148 0.0 3.0 0.00 0.00 0.00 74 1016.0
20260905210905 69 148 0.0 3.0 0.00 0.00 0.00 74 1016.0
20260905210808 69 197 0.0 3.0 0.00 0.00 0.00 74 1015.9
20260905210706 69 197 0.0 3.0 0.00 0.00 0.00 74 1015.9
20260905210605 69 197 1.0 3.0 0.00 0.00 0.00 74 1015.9
20260905210508 69 197 1.0 3.0 0.00 0.00 0.00 74 1015.9
20260905210406 69 197 0.0 3.0 0.00 0.00 0.00 74 1015.9
20260905210105 69 197 1.0 3.0 0.00 0.00 0.00 74 1015.9
20260905210009 69 197 2.0 3.0 0.00 0.00 0.00 74 1015.9
20260905205908 69 197 2.0 3.0 0.00 0.00 0.00 74 1015.9
20260905205608 69 197 2.0 3.0 0.00 0.00 0.00 74 1015.9
20260905205506 69 197 2.0 4.0 0.00 0.00 0.00 73 1015.9
20260905205405 69 197 1.0 4.0 0.00 0.00 0.00 73 1015.9
20260905205308 69 197 1.0 4.0 0.00 0.00 0.00 73 1015.9
20260905205105 69 197 2.0 4.0 0.00 0.00 0.00 73 1015.8
20260905205011 69 197 2.0 4.0 0.00 0.00 0.00 74 1015.8
20260905204905 69 197 2.0 4.0 0.00 0.00 0.00 74 1015.8
20260905204806 69 197 3.0 4.0 0.00 0.00 0.00 74 1015.9
20260905204708 69 197 3.0 4.0 0.00 0.00 0.00 74 1015.9
20260905204605 69 197 3.0 4.0 0.00 0.00 0.00 74 1015.9
20260905204408 69 197 3.0 4.0 0.00 0.00 0.00 74 1015.9
20260905204205 69 190 3.0 4.0 0.00 0.00 0.00 74 1015.9
20260905203905 69 190 2.0 4.0 0.00 0.00 0.00 73 1015.9
20260905203809 69 190 1.0 4.0 0.00 0.00 0.00 73 1015.9
20260905203605 69 190 3.0 4.0 0.00 0.00 0.00 73 1015.9
20260905203405 69 190 3.0 5.0 0.00 0.00 0.00 72 1016.0
20260905203305 69 190 3.0 5.0 0.00 0.00 0.00 72 1015.9
20260905203208 69 190 3.0 5.0 0.00 0.00 0.00 72 1015.9
20260905203106 69 190 3.0 5.0 0.00 0.00 0.00 72 1015.9
20260905203006 69 190 2.0 5.0 0.00 0.00 0.00 72 1016.0
20260905202908 69 190 3.0 5.0 0.00 0.00 0.00 72 1016.0
20260905202805 69 190 3.0 5.0 0.00 0.00 0.00 72 1016.0
20260905202705 69 190 4.0 5.0 0.00 0.00 0.00 72 1015.9
20260905202608 69 190 3.0 5.0 0.00 0.00 0.00 72 1015.9
20260905202506 70 190 3.0 5.0 0.00 0.00 0.00 72 1016.0
20260905202308 70 213 3.0 4.0 0.00 0.00 0.00 71 1015.9
20260905202105 70 213 2.0 4.0 0.00 0.00 0.00 71 1015.9
20260905202010 70 213 2.0 4.0 0.00 0.00 0.00 71 1015.9
20260905201905 70 213 2.0 4.0 0.00 0.00 0.00 71 1015.9
20260905201806 70 213 2.0 4.0 0.00 0.00 0.00 72 1015.9
20260905201709 70 213 2.0 4.0 0.00 0.00 0.00 72 1015.9
20260905201505 70 213 3.0 3.0 0.00 0.00 0.00 72 1015.9
20260905201408 70 213 3.0 3.0 0.00 0.00 0.00 72 1016.0
20260905201305 70 213 2.0 3.0 0.00 0.00 0.00 71 1015.9
20260905201204 70 213 2.0 3.0 0.00 0.00 0.00 71 1016.0
20260905201107 70 213 2.0 3.0 0.00 0.00 0.00 72 1015.9
20260905201006 70 213 2.0 3.0 0.00 0.00 0.00 72 1015.9
20260905200905 70 213 2.0 2.0 0.00 0.00 0.00 72 1015.9
20260905200808 70 213 2.0 2.0 0.00 0.00 0.00 72 1015.9
20260905200706 70 213 1.0 2.0 0.00 0.00 0.00 72 1015.9
20260905200605 70 213 0.0 2.0 0.00 0.00 0.00 72 1015.9
20260905200508 70 213 1.0 2.0 0.00 0.00 0.00 72 1015.8
20260905200405 70 213 2.0 2.0 0.00 0.00 0.00 72 1015.8
20260905200305 70 213 2.0 2.0 0.00 0.00 0.00 71 1015.8
20260905200208 71 213 0.0 2.0 0.00 0.00 0.00 71 1015.7
20260905200121 71 213 0.0 2.0 0.00 0.00 0.00 71 1015.7
20260905200009 71 213 0.0 2.0 0.00 0.00 0.00 72 1015.7
20260905195908 71 213 0.0 2.0 0.00 0.00 0.00 72 1015.8
20260905195805 71 213 1.0 2.0 0.00 0.00 0.00 72 1015.8
20260905195608 71 213 1.0 2.0 0.00 0.00 0.00 72 1015.8
20260905195506 71 213 1.0 2.0 0.00 0.00 0.00 71 1015.7
20260905195405 71 213 0.0 2.0 0.00 0.00 0.00 70 1015.8
20260905195308 72 213 0.0 2.0 0.00 0.00 0.00 70 1015.8
20260905195205 72 213 1.0 2.0 0.00 0.00 0.00 70 1015.7
20260905195105 72 213 1.0 2.0 0.00 0.00 0.00 69 1015.7
20260905195010 72 213 2.0 2.0 0.00 0.00 0.00 69 1015.7
20260905194904 72 213 1.0 1.0 0.00 0.00 0.00 69 1015.7
20260905194708 72 213 0.0 2.0 0.00 0.00 0.00 69 1015.7
20260905194606 72 213 0.0 2.0 0.00 0.00 0.00 69 1015.7
20260905194505 72 213 0.0 2.0 0.00 0.00 0.00 68 1015.8
20260905194305 72 213 0.0 2.0 0.00 0.00 0.00 68 1015.7
20260905194206 72 213 0.0 2.0 0.00 0.00 0.00 68 1015.7
20260905194108 72 213 0.0 2.0 0.00 0.00 0.00 68 1015.7
20260905193808 72 213 0.0 3.0 0.00 0.00 0.00 68 1015.6
20260905193706 72 213 1.0 3.0 0.00 0.00 0.00 68 1015.6
20260905193605 73 213 2.0 3.0 0.00 0.00 0.00 67 1015.6
20260905193508 73 213 1.0 3.0 0.00 0.00 0.00 67 1015.6
20260905193405 73 213 2.0 3.0 0.00 0.00 0.00 67 1015.6
20260905193208 73 213 1.0 3.0 0.00 0.00 0.00 67 1015.6
20260905193106 73 213 2.0 3.0 0.00 0.00 0.00 68 1015.6
20260905192907 73 213 0.0 3.0 0.00 0.00 0.00 67 1015.5
20260905192804 73 213 2.0 3.0 0.00 0.00 0.00 66 1015.5
20260905192607 73 213 1.0 3.0 0.00 0.00 0.00 66 1015.5
20260905192506 73 213 1.0 4.0 0.00 0.00 0.00 65 1015.5
20260905192405 73 213 1.0 4.0 0.00 0.00 0.00 65 1015.5
20260905192308 73 213 1.0 4.0 0.00 0.00 0.00 65 1015.5
20260905192205 73 213 2.0 4.0 0.00 0.00 0.00 64 1015.5
20260905192106 73 213 3.0 4.0 0.00 0.00 0.00 65 1015.4
20260905191905 73 213 2.0 4.0 0.00 0.00 0.00 64 1015.5
20260905191708 73 213 2.0 5.0 0.00 0.00 0.00 64 1015.5
20260905191606 73 213 3.0 5.0 0.00 0.00 0.00 64 1015.5
20260905191407 73 213 3.0 5.0 0.00 0.00 0.00 64 1015.4
20260905191305 73 213 3.0 5.0 0.00 0.00 0.00 65 1015.4
20260905191108 74 213 2.0 5.0 0.00 0.00 0.00 65 1015.4
20260905190905 74 213 3.0 5.0 0.00 0.00 0.00 65 1015.3
20260905190605 74 223 5.0 5.0 0.00 0.00 0.00 65 1015.2
20260905190405 74 107 3.0 3.0 0.00 0.00 0.00 65 1015.2
20260905190305 74 107 2.0 3.0 0.00 0.00 0.00 64 1015.2
20260905190208 74 107 2.0 3.0 0.00 0.00 0.00 63 1015.2
20260905190105 74 107 2.0 3.0 0.00 0.00 0.00 63 1015.2
20260905190008 74 107 2.0 3.0 0.00 0.00 0.00 63 1015.2
20260905185907 75 107 2.0 3.0 0.00 0.00 0.00 63 1015.2
20260905185805 75 107 3.0 3.0 0.00 0.00 0.00 63 1015.2
20260905185705 75 107 2.0 3.0 0.00 0.00 0.00 63 1015.2
20260905185606 75 107 2.0 3.0 0.00 0.00 0.00 63 1015.1
20260905185505 75 107 1.0 2.0 0.00 0.00 0.00 63 1015.1
20260905185406 75 107 0.0 1.0 0.00 0.00 0.00 63 1015.2
20260905185307 75 107 1.0 1.0 0.00 0.00 0.00 63 1015.2
20260905185205 75 107 0.0 1.0 0.00 0.00 0.00 63 1015.1
20260905185105 75 107 0.0 1.0 0.00 0.00 0.00 63 1015.1
20260905185009 75 107 1.0 1.0 0.00 0.00 0.00 62 1015.1
20260905184605 76 107 1.0 2.0 0.00 0.00 0.00 60 1015.0
20260905184505 76 107 1.0 2.0 0.00 0.00 0.00 60 1015.0
20260905184407 76 107 1.0 2.0 0.00 0.00 0.00 60 1015.0
20260905184305 76 107 1.0 2.0 0.00 0.00 0.00 59 1015.0
20260905184205 76 107 1.0 2.0 0.00 0.00 0.00 59 1015.0
20260905184006 76 107 1.0 2.0 0.00 0.00 0.00 59 1015.0
20260905183906 76 107 0.0 2.0 0.00 0.00 0.00 60 1015.1
20260905183808 77 107 1.0 2.0 0.00 0.00 0.00 60 1015.0
20260905183705 77 107 2.0 2.0 0.00 0.00 0.00 60 1015.0
20260905183405 77 107 1.0 2.0 0.00 0.00 0.00 59 1015.0
20260905183305 77 107 0.0 3.0 0.00 0.00 0.00 58 1015.0
20260905183208 77 107 2.0 3.0 0.00 0.00 0.00 58 1014.9
20260905183105 77 107 1.0 3.0 0.00 0.00 0.00 59 1014.9
20260905183006 78 107 1.0 3.0 0.00 0.00 0.00 58 1014.9
20260905182907 78 107 2.0 3.0 0.00 0.00 0.00 58 1014.9
20260905182805 78 107 0.0 3.0 0.00 0.00 0.00 58 1014.9
20260905182608 78 107 0.0 5.0 0.00 0.00 0.00 57 1014.9
20260905182505 79 107 0.0 5.0 0.00 0.00 0.00 56 1014.9
20260905182307 79 107 2.0 5.0 0.00 0.00 0.00 54 1014.7
20260905182205 79 105 1.0 5.0 0.00 0.00 0.00 53 1014.7
20260905182105 79 105 2.0 5.0 0.00 0.00 0.00 53 1014.8
20260905182008 79 105 2.0 5.0 0.00 0.00 0.00 52 1014.8
20260905181905 79 105 1.0 5.0 0.00 0.00 0.00 52 1014.7
20260905181805 79 105 2.0 5.0 0.00 0.00 0.00 52 1014.7
20260905181604 80 103 3.0 5.0 0.00 0.00 0.00 52 1014.7
20260905181505 80 105 3.0 5.0 0.00 0.00 0.00 52 1014.7
20260905181408 80 115 3.0 5.0 0.00 0.00 0.00 52 1014.7
20260905181305 80 127 3.0 5.0 0.00 0.00 0.00 52 1014.7
20260905181107 80 127 2.0 5.0 0.00 0.00 0.00 54 1014.7
20260905181006 80 127 3.0 5.0 0.00 0.00 0.00 54 1014.7
20260905180905 81 137 3.0 5.0 0.00 0.00 0.00 54 1014.6
20260905180807 81 115 3.0 5.0 0.00 0.00 0.00 52 1014.6
20260905180705 81 111 3.0 5.0 0.00 0.00 0.00 53 1014.6
20260905180605 81 112 3.0 5.0 0.00 0.00 0.00 52 1014.5
20260905180508 81 114 2.0 4.0 0.00 0.00 0.00 52 1014.6
20260905180405 81 130 4.0 4.0 0.00 0.00 0.00 52 1014.5
20260905180305 81 119 3.0 3.0 0.00 0.00 0.00 52 1014.6
20260905180208 81 235 2.0 3.0 0.00 0.00 0.00 51 1014.6
20260905180120 82 235 1.0 4.0 0.00 0.00 0.00 50 1014.6
20260905180008 82 235 1.0 4.0 0.00 0.00 0.00 50 1014.6
20260905175908 82 235 0.0 4.0 0.00 0.00 0.00 49 1014.6
20260905175805 82 235 2.0 4.0 0.00 0.00 0.00 49 1014.6
20260905175705 82 235 0.0 4.0 0.00 0.00 0.00 49 1014.5
20260905175607 82 235 1.0 4.0 0.00 0.00 0.00 50 1014.5
20260905175405 83 235 0.0 4.0 0.00 0.00 0.00 49 1014.5
20260905175307 83 235 0.0 4.0 0.00 0.00 0.00 50 1014.5
20260905175206 83 235 1.0 4.0 0.00 0.00 0.00 49 1014.5
20260905175105 83 235 2.0 4.0 0.00 0.00 0.00 49 1014.5
20260905175008 84 235 2.0 4.0 0.00 0.00 0.00 48 1014.5
20260905174905 84 235 4.0 4.0 0.00 0.00 0.00 48 1014.5
20260905174805 84 235 3.0 5.0 0.00 0.00 0.00 48 1014.5
20260905174707 84 237 4.0 5.0 0.00 0.00 0.00 48 1014.5
20260905174605 84 230 2.0 5.0 0.00 0.00 0.00 47 1014.5
20260905174305 85 82 0.0 7.0 0.00 0.00 0.00 46 1014.5
20260905174205 85 82 3.0 7.0 0.00 0.00 0.00 47 1014.5
20260905174108 85 82 0.0 7.0 0.00 0.00 0.00 45 1014.4
20260905174006 85 103 2.0 7.0 0.00 0.00 0.00 45 1014.4
20260905173905 85 65 2.0 7.0 0.00 0.00 0.00 44 1014.3
20260905173807 85 72 4.0 8.0 0.00 0.00 0.00 44 1014.4
20260905173705 86 60 3.0 8.0 0.00 0.00 0.00 44 1014.3
20260905173605 86 80 5.0 9.0 0.00 0.00 0.00 44 1014.3
20260905173508 86 90 6.0 9.0 0.00 0.00 0.00 44 1014.3
20260905173405 86 91 5.0 9.0 0.00 0.00 0.00 44 1014.2
20260905173305 86 76 4.0 9.0 0.00 0.00 0.00 44 1014.2
20260905173207 86 98 5.0 9.0 0.00 0.00 0.00 44 1014.2
20260905173105 86 113 3.0 9.0 0.00 0.00 0.00 44 1014.2
20260905173006 87 92 5.0 9.0 0.00 0.00 0.00 44 1014.2
20260905172906 87 94 6.0 9.0 0.00 0.00 0.00 44 1014.2
20260905172805 87 58 4.0 9.0 0.00 0.00 0.00 44 1014.2
20260905172705 87 42 3.0 9.0 0.00 0.00 0.00 44 1014.2
20260905172607 87 70 3.0 9.0 0.00 0.00 0.00 44 1014.2
20260905172505 87 52 4.0 9.0 0.00 0.00 0.00 44 1014.1
20260905172405 87 64 2.0 9.0 0.00 0.00 0.00 44 1014.2
20260905172308 87 55 4.0 9.0 0.00 0.00 0.00 43 1014.1
20260905172105 87 61 5.0 13.0 0.00 0.00 0.00 43 1014.1
20260905172009 88 46 3.0 13.0 0.00 0.00 0.00 43 1014.1
20260905171906 88 75 5.0 13.0 0.00 0.00 0.00 44 1014.1
20260905171804 88 81 3.0 13.0 0.00 0.00 0.00 44 1014.1
20260905171605 88 57 4.0 13.0 0.00 0.00 0.00 43 1014.1
20260905171505 88 49 4.0 13.0 0.00 0.00 0.00 43 1014.1
20260905171407 88 53 5.0 13.0 0.00 0.00 0.00 42 1014.1
20260905171306 88 81 6.0 13.0 0.00 0.00 0.00 42 1014.1
20260905171108 89 79 11.0 13.0 0.00 0.00 0.00 43 1014.1
20260905170905 89 105 8.0 12.0 0.00 0.00 0.00 42 1014.1
20260905170808 89 114 5.0 14.0 0.00 0.00 0.00 43 1014.0
20260905170705 89 107 4.0 14.0 0.00 0.00 0.00 42 1014.0
20260905170605 90 90 10.0 14.0 0.00 0.00 0.00 42 1014.0
20260905170508 90 81 10.0 14.0 0.00 0.00 0.00 42 1014.0
20260905170406 90 88 10.0 14.0 0.00 0.00 0.00 42 1014.0
20260905170305 90 82 6.0 14.0 0.00 0.00 0.00 41 1014.0
20260905170206 90 91 7.0 14.0 0.00 0.00 0.00 41 1014.0
20260905170105 91 76 5.0 14.0 0.00 0.00 0.00 40 1013.9
20260905170008 91 76 8.0 14.0 0.00 0.00 0.00 40 1014.0
20260905165906 91 57 7.0 14.0 0.00 0.00 0.00 41 1013.9
20260905165806 91 88 11.0 14.0 0.00 0.00 0.00 40 1013.9
20260905165607 92 121 1.0 8.0 0.00 0.00 0.00 40 1013.9
20260905165505 92 92 2.0 8.0 0.00 0.00 0.00 41 1013.9
20260905165405 92 115 5.0 10.0 0.00 0.00 0.00 39 1013.9
20260905165205 92 109 2.0 10.0 0.00 0.00 0.00 39 1013.9
20260905165105 92 68 2.0 10.0 0.00 0.00 0.00 39 1013.9
20260905165009 92 80 2.0 10.0 0.00 0.00 0.00 38 1013.9
20260905164905 92 78 3.0 10.0 0.00 0.00 0.00 39 1013.9
20260905164805 93 53 4.0 10.0 0.00 0.00 0.00 38 1013.9
20260905164408 93 74 9.0 10.0 0.00 0.00 0.00 38 1013.9
20260905164305 94 88 7.0 9.0 0.00 0.00 0.00 37 1013.9
20260905164006 94 96 5.0 7.0 0.00 0.00 0.00 36 1013.9
20260905163905 94 169 2.0 10.0 0.00 0.00 0.00 36 1013.9
20260905163807 94 169 1.0 10.0 0.00 0.00 0.00 35 1013.9
20260905163605 94 154 2.0 10.0 0.00 0.00 0.00 35 1013.8
20260905163508 94 81 1.0 10.0 0.00 0.00 0.00 35 1013.8
20260905163405 94 213 3.0 10.0 0.00 0.00 0.00 35 1013.8
20260905163105 94 203 4.0 11.0 0.00 0.00 0.00 34 1013.7
20260905162907 94 203 7.0 13.0 0.00 0.00 0.00 35 1013.7
20260905162805 94 224 3.0 13.0 0.00 0.00 0.00 35 1013.7
20260905162705 94 238 4.0 13.0 0.00 0.00 0.00 35 1013.6
20260905162607 94 234 6.0 13.0 0.00 0.00 0.00 34 1013.7
20260905162404 94 198 7.0 13.0 0.00 0.00 0.00 35 1013.7
20260905162205 94 223 7.0 13.0 0.00 0.00 0.00 35 1013.6
20260905162105 94 210 7.0 13.0 0.00 0.00 0.00 35 1013.6
20260905162009 94 209 7.0 13.0 0.00 0.00 0.00 35 1013.6
20260905161905 94 238 12.0 13.0 0.00 0.00 0.00 34 1013.6
20260905161805 94 212 11.0 13.0 0.00 0.00 0.00 34 1013.6
20260905161707 94 204 7.0 13.0 0.00 0.00 0.00 34 1013.6
20260905161605 95 227 7.0 13.0 0.00 0.00 0.00 34 1013.6
20260905161507 95 217 11.0 13.0 0.00 0.00 0.00 34 1013.6
20260905161408 95 211 7.0 13.0 0.00 0.00 0.00 34 1013.6
20260905161304 95 208 7.0 14.0 0.00 0.00 0.00 34 1013.5
20260905161107 95 216 7.0 14.0 0.00 0.00 0.00 34 1013.6
20260905161006 95 202 6.0 14.0 0.00 0.00 0.00 33 1013.5
20260905160905 95 215 8.0 14.0 0.00 0.00 0.00 34 1013.5
20260905160807 95 204 10.0 14.0 0.00 0.00 0.00 34 1013.5
20260905160705 95 212 5.0 14.0 0.00 0.00 0.00 34 1013.6
20260905160507 95 215 9.0 14.0 0.00 0.00 0.00 34 1013.5
20260905160306 95 224 13.0 13.0 0.00 0.00 0.00 35 1013.5
20260905160207 95 200 6.0 11.0 0.00 0.00 0.00 34 1013.5
20260905160131 95 176 3.0 10.0 0.00 0.00 0.00 33 1013.5
20260905155907 95 180 7.0 12.0 0.00 0.00 0.00 33 1013.4
20260905155805 95 192 7.0 12.0 0.00 0.00 0.00 34 1013.4
20260905155704 95 207 7.0 12.0 0.00 0.00 0.00 34 1013.4
20260905155505 95 196 7.0 12.0 0.00 0.00 0.00 33 1013.5
20260905155405 95 173 3.0 12.0 0.00 0.00 0.00 33 1013.5
20260905155308 96 190 8.0 12.0 0.00 0.00 0.00 33 1013.5
20260905155205 96 187 9.0 12.0 0.00 0.00 0.00 33 1013.5
20260905154905 96 217 5.0 8.0 0.00 0.00 0.00 34 1013.5
20260905154805 96 179 8.0 8.0 0.00 0.00 0.00 33 1013.5
20260905154707 96 207 3.0 8.0 0.00 0.00 0.00 34 1013.5
20260905154605 96 232 4.0 8.0 0.00 0.00 0.00 34 1013.5
20260905154505 96 202 3.0 8.0 0.00 0.00 0.00 33 1013.5
20260905154407 96 200 6.0 8.0 0.00 0.00 0.00 35 1013.5
20260905154305 96 221 3.0 8.0 0.00 0.00 0.00 33 1013.5
20260905154205 96 223 3.0 8.0 0.00 0.00 0.00 33 1013.5
20260905154005 96 236 3.0 10.0 0.00 0.00 0.00 33 1013.5
20260905153808 96 208 7.0 10.0 0.00 0.00 0.00 33 1013.5
20260905153605 96 256 3.0 12.0 0.00 0.00 0.00 34 1013.5
20260905153509 96 234 5.0 12.0 0.00 0.00 0.00 34 1013.5
20260905153405 96 225 4.0 12.0 0.00 0.00 0.00 34 1013.5
20260905153305 96 219 5.0 12.0 0.00 0.00 0.00 34 1013.5
20260905153106 96 246 3.0 12.0 0.00 0.00 0.00 33 1013.5
20260905153006 96 207 6.0 12.0 0.00 0.00 0.00 33 1013.5
20260905152805 96 220 9.0 12.0 0.00 0.00 0.00 34 1013.5
20260905152706 96 245 10.0 12.0 0.00 0.00 0.00 34 1013.5
20260905152607 96 214 7.0 12.0 0.00 0.00 0.00 35 1013.5
20260905152308 96 236 4.0 12.0 0.00 0.00 0.00 33 1013.4
20260905152105 96 205 6.0 12.0 0.00 0.00 0.00 33 1013.4
20260905152008 96 217 7.0 13.0 0.00 0.00 0.00 33 1013.4
20260905151905 96 213 7.0 13.0 0.00 0.00 0.00 33 1013.4
20260905151707 96 199 8.0 13.0 0.00 0.00 0.00 33 1013.4
20260905151505 96 166 7.0 13.0 0.00 0.00 0.00 33 1013.3
20260905151407 96 211 4.0 13.0 0.00 0.00 0.00 33 1013.4
20260905151305 96 184 8.0 13.0 0.00 0.00 0.00 32 1013.4
20260905151205 96 181 11.0 13.0 0.00 0.00 0.00 32 1013.3
20260905151107 97 208 12.0 13.0 0.00 0.00 0.00 32 1013.4
20260905151006 97 202 6.0 12.0 0.00 0.00 0.00 33 1013.4
20260905150905 97 215 7.0 12.0 0.00 0.00 0.00 33 1013.4
20260905150808 97 255 7.0 12.0 0.00 0.00 0.00 33 1013.4
20260905150705 96 222 7.0 12.0 0.00 0.00 0.00 33 1013.4
20260905150605 96 225 6.0 12.0 0.00 0.00 0.00 32 1013.4
20260905150509 96 233 12.0 12.0 0.00 0.00 0.00 32 1013.4
20260905150405 96 215 3.0 16.0 0.00 0.00 0.00 32 1013.4
20260905150304 96 207 3.0 16.0 0.00 0.00 0.00 32 1013.4
20260905150208 96 198 5.0 16.0 0.00 0.00 0.00 32 1013.3
20260905150105 96 242 4.0 16.0 0.00 0.00 0.00 32 1013.3
20260905150009 96 218 4.0 16.0 0.00 0.00 0.00 33 1013.4
20260905145908 96 182 4.0 16.0 0.00 0.00 0.00 32 1013.3
20260905145805 96 190 10.0 16.0 0.00 0.00 0.00 31 1013.3
20260905145705 96 215 9.0 16.0 0.00 0.00 0.00 32 1013.3
20260905145607 96 186 8.0 16.0 0.00 0.00 0.00 33 1013.3
20260905145405 96 200 10.0 16.0 0.00 0.00 0.00 32 1013.3
20260905145308 96 204 7.0 21.0 0.00 0.00 0.00 32 1013.3
20260905145205 96 207 9.0 21.0 0.00 0.00 0.00 32 1013.3
20260905145104 97 223 10.0 21.0 0.00 0.00 0.00 32 1013.3
20260905145010 97 197 13.0 21.0 0.00 0.00 0.00 32 1013.3
20260905144905 97 212 11.0 21.0 0.00 0.00 0.00 32 1013.3
20260905144805 97 174 9.0 21.0 0.00 0.00 0.00 32 1013.3
20260905144707 97 201 7.0 21.0 0.00 0.00 0.00 32 1013.3
20260905144605 97 232 8.0 21.0 0.00 0.00 0.00 33 1013.3
20260905144505 97 194 4.0 21.0 0.00 0.00 0.00 34 1013.3
20260905144408 97 225 5.0 21.0 0.00 0.00 0.00 32 1013.2
20260905144305 97 223 18.0 19.0 0.00 0.00 0.00 32 1013.3
20260905144107 96 209 7.0 19.0 0.00 0.00 0.00 33 1013.4
20260905144006 96 213 5.0 19.0 0.00 0.00 0.00 34 1013.4
20260905143905 97 192 7.0 19.0 0.00 0.00 0.00 32 1013.4
20260905143807 97 191 10.0 19.0 0.00 0.00 0.00 32 1013.4
20260905143705 97 172 10.0 19.0 0.00 0.00 0.00 32 1013.4
20260905143508 97 136 5.0 10.0 0.00 0.00 0.00 32 1013.4
20260905143405 97 184 3.0 12.0 0.00 0.00 0.00 33 1013.5
20260905143207 97 221 1.0 12.0 0.00 0.00 0.00 32 1013.5
20260905143105 97 243 2.0 12.0 0.00 0.00 0.00 31 1013.5
20260905143005 97 266 4.0 12.0 0.00 0.00 0.00 30 1013.6
20260905142907 97 188 2.0 12.0 0.00 0.00 0.00 30 1013.6
20260905142805 97 190 4.0 12.0 0.00 0.00 0.00 32 1013.6
20260905142705 97 190 5.0 12.0 0.00 0.00 0.00 31 1013.6
20260905142607 97 190 7.0 12.0 0.00 0.00 0.00 31 1013.6
20260905142505 97 202 7.0 12.0 0.00 0.00 0.00 31 1013.7
20260905142405 97 207 11.0 12.0 0.00 0.00 0.00 32 1013.6
20260905142307 97 259 4.0 12.0 0.00 0.00 0.00 32 1013.7
20260905142205 97 206 7.0 12.0 0.00 0.00 0.00 32 1013.7
20260905142105 97 194 8.0 12.0 0.00 0.00 0.00 31 1013.6
20260905142008 97 207 6.0 12.0 0.00 0.00 0.00 34 1013.6
20260905141905 97 235 9.0 12.0 0.00 0.00 0.00 32 1013.7
20260905141805 97 264 4.0 12.0 0.00 0.00 0.00 32 1013.7
20260905141708 97 223 8.0 12.0 0.00 0.00 0.00 33 1013.7
20260905141605 97 240 6.0 12.0 0.00 0.00 0.00 31 1013.7
20260905141504 97 250 8.0 12.0 0.00 0.00 0.00 32 1013.6
20260905141305 97 161 6.0 13.0 0.00 0.00 0.00 31 1013.7
20260905141205 97 199 7.0 13.0 0.00 0.00 0.00 31 1013.7
20260905141107 97 206 7.0 9.0 0.00 0.00 0.00 31 1013.7
20260905141005 97 103 2.0 7.0 0.00 0.00 0.00 31 1013.7
20260905140808 97 130 4.0 10.0 0.00 0.00 0.00 33 1013.7
20260905140705 97 130 5.0 11.0 0.00 0.00 0.00 31 1013.7
20260905140605 97 194 3.0 11.0 0.00 0.00 0.00 32 1013.7
20260905140405 97 178 1.0 11.0 0.00 0.00 0.00 32 1013.7
20260905140306 97 245 2.0 11.0 0.00 0.00 0.00 30 1013.7
20260905140208 97 304 1.0 11.0 0.00 0.00 0.00 30 1013.7
20260905140119 97 338 2.0 11.0 0.00 0.00 0.00 30 1013.8
20260905140008 97 229 0.0 11.0 0.00 0.00 0.00 30 1013.8
20260905135907 97 223 7.0 11.0 0.00 0.00 0.00 30 1013.8
20260905135805 97 232 7.0 11.0 0.00 0.00 0.00 32 1013.8
20260905135705 97 203 7.0 11.0 0.00 0.00 0.00 32 1013.8
20260905135607 97 201 3.0 11.0 0.00 0.00 0.00 32 1013.8
20260905135505 97 177 5.0 11.0 0.00 0.00 0.00 32 1013.8
20260905135405 97 190 7.0 11.0 0.00 0.00 0.00 32 1013.8
20260905135309 97 237 6.0 12.0 0.00 0.00 0.00 31 1013.8
20260905135205 97 207 7.0 12.0 0.00 0.00 0.00 32 1013.8
20260905135104 97 221 6.0 12.0 0.00 0.00 0.00 32 1013.9
20260905134905 97 278 7.0 8.0 0.00 0.00 0.00 32 1013.9
20260905134805 97 165 3.0 7.0 0.00 0.00 0.00 31 1013.8
20260905134707 97 284 3.0 8.0 0.00 0.00 0.00 32 1013.8
20260905134505 97 284 3.0 10.0 0.00 0.00 0.00 31 1013.9
20260905134407 96 289 6.0 12.0 0.00 0.00 0.00 32 1013.9
20260905134305 96 326 5.0 13.0 0.00 0.00 0.00 32 1013.8
20260905134204 96 350 4.0 13.0 0.00 0.00 0.00 31 1013.8
20260905134108 96 350 2.0 13.0 0.00 0.00 0.00 31 1013.8
20260905134005 96 324 5.0 13.0 0.00 0.00 0.00 30 1013.9
20260905133905 97 220 1.0 13.0 0.00 0.00 0.00 31 1013.9
20260905133807 97 191 4.0 13.0 0.00 0.00 0.00 30 1013.9
20260905133705 97 226 8.0 13.0 0.00 0.00 0.00 30 1014.0
20260905133605 97 251 4.0 13.0 0.00 0.00 0.00 32 1013.9
20260905133508 97 219 8.0 13.0 0.00 0.00 0.00 31 1013.9
20260905133404 97 214 11.0 13.0 0.00 0.00 0.00 32 1013.9
20260905133306 97 240 11.0 13.0 0.00 0.00 0.00 31 1014.0
20260905133207 97 219 7.0 13.0 0.00 0.00 0.00 32 1014.0
20260905133105 97 211 6.0 12.0 0.00 0.00 0.00 33 1014.0
20260905133005 97 217 10.0 11.0 0.00 0.00 0.00 32 1014.0
20260905132907 97 206 6.0 8.0 0.00 0.00 0.00 31 1014.0
20260905132805 97 279 4.0 8.0 0.00 0.00 0.00 31 1014.0
20260905132705 97 26 4.0 8.0 0.00 0.00 0.00 30 1014.0
20260905132608 97 355 3.0 8.0 0.00 0.00 0.00 32 1014.0
20260905132505 97 308 3.0 11.0 0.00 0.00 0.00 31 1014.1
20260905132406 97 282 2.0 13.0 0.00 0.00 0.00 30 1014.1
20260905132307 97 229 0.0 13.0 0.00 0.00 0.00 30 1014.1
20260905132205 97 229 1.0 13.0 0.00 0.00 0.00 30 1014.1
20260905132105 97 257 4.0 13.0 0.00 0.00 0.00 31 1014.1
20260905131905 97 201 5.0 13.0 0.00 0.00 0.00 30 1014.1
20260905131805 97 268 4.0 13.0 0.00 0.00 0.00 31 1014.1
20260905131708 97 227 7.0 13.0 0.00 0.00 0.00 32 1014.1
20260905131605 97 221 5.0 13.0 0.00 0.00 0.00 31 1014.1
20260905131505 97 225 8.0 13.0 0.00 0.00 0.00 31 1014.1
20260905131407 97 205 7.0 11.0 0.00 0.00 0.00 32 1014.1
20260905131305 96 267 6.0 11.0 0.00 0.00 0.00 31 1014.1
20260905131205 97 283 7.0 11.0 0.00 0.00 0.00 30 1014.1
20260905131107 97 254 10.0 11.0 0.00 0.00 0.00 30 1014.1
20260905131006 97 267 5.0 11.0 0.00 0.00 0.00 31 1014.2
20260905130905 97 246 11.0 11.0 0.00 0.00 0.00 31 1014.2
20260905130705 97 241 9.0 11.0 0.00 0.00 0.00 30 1014.1
20260905130605 97 263 7.0 11.0 0.00 0.00 0.00 32 1014.1
20260905130508 97 208 9.0 11.0 0.00 0.00 0.00 30 1014.2
20260905130405 97 271 8.0 18.0 0.00 0.00 0.00 30 1014.2
20260905130304 97 254 6.0 18.0 0.00 0.00 0.00 31 1014.2
20260905130208 97 214 8.0 18.0 0.00 0.00 0.00 32 1014.2
20260905130105 96 207 7.0 18.0 0.00 0.00 0.00 31 1014.2
20260905130008 96 220 11.0 18.0 0.00 0.00 0.00 31 1014.2
20260905125907 96 222 6.0 18.0 0.00 0.00 0.00 30 1014.3
20260905125805 96 182 3.0 18.0 0.00 0.00 0.00 30 1014.2
20260905125705 96 196 2.0 18.0 0.00 0.00 0.00 31 1014.3
20260905125607 96 205 4.0 18.0 0.00 0.00 0.00 30 1014.3
20260905125505 96 217 7.0 18.0 0.00 0.00 0.00 30 1014.3
20260905125405 96 221 18.0 18.0 0.00 0.00 0.00 31 1014.3
20260905125206 96 222 7.0 17.0 0.00 0.00 0.00 31 1014.4
20260905125105 96 213 9.0 17.0 0.00 0.00 0.00 32 1014.4
20260905124905 96 194 6.0 17.0 0.00 0.00 0.00 30 1014.4
20260905124805 96 196 11.0 16.0 0.00 0.00 0.00 31 1014.4
20260905124706 96 188 8.0 13.0 0.00 0.00 0.00 31 1014.4
20260905124505 96 240 6.0 13.0 0.00 0.00 0.00 31 1014.4
20260905124407 96 261 5.0 13.0 0.00 0.00 0.00 30 1014.4
20260905124305 96 229 13.0 13.0 0.00 0.00 0.00 32 1014.4
20260905124205 96 248 8.0 13.0 0.00 0.00 0.00 31 1014.3
20260905124107 96 186 7.0 13.0 0.00 0.00 0.00 32 1014.4
20260905124006 96 222 8.0 13.0 0.00 0.00 0.00 30 1014.4
20260905123905 96 186 7.0 13.0 0.00 0.00 0.00 30 1014.4
20260905123807 96 209 9.0 13.0 0.00 0.00 0.00 30 1014.4
20260905123705 96 185 8.0 11.0 0.00 0.00 0.00 30 1014.4
20260905123405 96 234 8.0 15.0 0.00 0.00 0.00 32 1014.4
20260905123304 96 259 6.0 16.0 0.00 0.00 0.00 31 1014.4
20260905123105 96 286 7.0 16.0 0.00 0.00 0.00 31 1014.4
20260905123006 96 275 6.0 16.0 0.00 0.00 0.00 30 1014.5
20260905122907 96 199 1.0 16.0 0.00 0.00 0.00 31 1014.5
20260905122805 96 242 6.0 16.0 0.00 0.00 0.00 31 1014.5
20260905122705 96 224 7.0 17.0 0.00 0.00 0.00 30 1014.6
20260905122607 96 238 11.0 17.0 0.00 0.00 0.00 31 1014.5
20260905122505 96 224 14.0 17.0 0.00 0.00 0.00 31 1014.5
20260905122405 96 226 10.0 17.0 0.00 0.00 0.00 31 1014.5
20260905122307 96 232 11.0 17.0 0.00 0.00 0.00 31 1014.5
20260905122008 96 223 5.0 17.0 0.00 0.00 0.00 31 1014.5
20260905121905 96 242 9.0 17.0 0.00 0.00 0.00 30 1014.5
20260905121805 96 232 7.0 17.0 0.00 0.00 0.00 31 1014.5
20260905121708 96 239 6.0 14.0 0.00 0.00 0.00 30 1014.5
20260905121605 96 198 6.0 14.0 0.00 0.00 0.00 30 1014.5
20260905121505 96 228 6.0 14.0 0.00 0.00 0.00 30 1014.5
20260905121407 96 221 3.0 14.0 0.00 0.00 0.00 29 1014.5
20260905121305 96 248 0.0 14.0 0.00 0.00 0.00 29 1014.5
20260905121205 96 251 6.0 14.0 0.00 0.00 0.00 32 1014.5
20260905121005 96 200 4.0 14.0 0.00 0.00 0.00 31 1014.5
20260905120807 96 148 3.0 11.0 0.00 0.00 0.00 31 1014.6
20260905120705 95 194 6.0 11.0 0.00 0.00 0.00 32 1014.6
20260905120604 95 214 7.0 9.0 0.00 0.00 0.00 33 1014.6
20260905120508 95 204 2.0 6.0 0.00 0.00 0.00 32 1014.6
20260905120405 95 143 1.0 6.0 0.00 0.00 0.00 31 1014.6
20260905120304 95 47 0.0 7.0 0.00 0.00 0.00 32 1014.7
20260905120119 95 325 4.0 7.0 0.00 0.00 0.00 34 1014.8
20260905120008 95 332 5.0 7.0 0.00 0.00 0.00 34 1014.7
20260905115907 95 326 5.0 7.0 0.00 0.00 0.00 33 1014.8
20260905115805 95 327 2.0 7.0 0.00 0.00 0.00 33 1014.7
20260905115704 95 30 2.0 7.0 0.00 0.00 0.00 32 1014.6
20260905115607 95 30 3.0 7.0 0.00 0.00 0.00 32 1014.7
20260905115506 95 315 1.0 9.0 0.00 0.00 0.00 32 1014.8
20260905115307 95 343 5.0 9.0 0.00 0.00 0.00 33 1014.7
20260905115205 95 330 4.0 9.0 0.00 0.00 0.00 32 1014.8
20260905115104 95 57 2.0 9.0 0.00 0.00 0.00 31 1014.7
20260905114905 95 5 0.0 9.0 0.00 0.00 0.00 32 1014.8
20260905114707 95 348 2.0 9.0 0.00 0.00 0.00 33 1014.9
20260905114505 95 36 9.0 9.0 0.00 0.00 0.00 31 1014.9
20260905114408 95 5 1.0 8.0 0.00 0.00 0.00 33 1014.8
20260905114206 95 5 2.0 8.0 0.00 0.00 0.00 34 1014.9
20260905114107 95 317 5.0 8.0 0.00 0.00 0.00 34 1014.9
20260905114004 95 333 6.0 8.0 0.00 0.00 0.00 33 1014.9
20260905113807 95 339 4.0 8.0 0.00 0.00 0.00 34 1014.9
20260905113705 95 329 3.0 9.0 0.00 0.00 0.00 32 1015.0
20260905113507 96 304 2.0 12.0 0.00 0.00 0.00 31 1015.0
20260905113405 96 287 4.0 12.0 0.00 0.00 0.00 32 1015.0
20260905113305 96 346 3.0 12.0 0.00 0.00 0.00 33 1015.0
20260905113207 96 336 1.0 12.0 0.00 0.00 0.00 33 1015.0
20260905113105 96 331 5.0 12.0 0.00 0.00 0.00 33 1015.0
20260905113006 96 336 7.0 12.0 0.00 0.00 0.00 33 1015.0
20260905112907 96 40 3.0 12.0 0.00 0.00 0.00 34 1015.0
20260905112805 96 340 6.0 12.0 0.00 0.00 0.00 32 1015.0
20260905112705 96 344 4.0 12.0 0.00 0.00 0.00 34 1015.0
20260905112607 95 321 6.0 12.0 0.00 0.00 0.00 34 1015.0
20260905112405 95 340 5.0 9.0 0.00 0.00 0.00 34 1015.0
20260905112307 95 342 3.0 10.0 0.00 0.00 0.00 33 1015.0
20260905112205 95 299 3.0 10.0 0.00 0.00 0.00 32 1015.0
20260905112105 95 30 5.0 12.0 0.00 0.00 0.00 31 1015.0
20260905112008 95 22 4.0 12.0 0.00 0.00 0.00 33 1015.0
20260905111905 95 40 5.0 12.0 0.00 0.00 0.00 33 1014.9
20260905111805 95 38 4.0 12.0 0.00 0.00 0.00 32 1014.9
20260905111707 95 327 5.0 12.0 0.00 0.00 0.00 31 1014.9
20260905111605 95 335 2.0 13.0 0.00 0.00 0.00 34 1015.0
20260905111505 95 350 9.0 13.0 0.00 0.00 0.00 34 1014.9
20260905111407 95 21 7.0 13.0 0.00 0.00 0.00 34 1015.0
20260905111205 95 47 7.0 13.0 0.00 0.00 0.00 35 1015.0
20260905111107 95 355 8.0 13.0 0.00 0.00 0.00 33 1015.0
20260905111006 95 333 6.0 13.0 0.00 0.00 0.00 34 1015.0
20260905110904 95 337 10.0 13.0 0.00 0.00 0.00 33 1015.1
20260905110808 95 350 8.0 13.0 0.00 0.00 0.00 33 1015.0
20260905110704 95 36 5.0 13.0 0.00 0.00 0.00 34 1015.0
20260905110604 94 347 7.0 13.0 0.00 0.00 0.00 34 1015.0
20260905110508 94 338 3.0 12.0 0.00 0.00 0.00 33 1015.0
20260905110405 94 344 10.0 12.0 0.00 0.00 0.00 35 1015.0
20260905110207 94 26 6.0 12.0 0.00 0.00 0.00 34 1015.1
20260905110105 94 342 7.0 12.0 0.00 0.00 0.00 34 1015.1
20260905110007 94 348 8.0 12.0 0.00 0.00 0.00 34 1015.0
20260905105907 94 348 7.0 12.0 0.00 0.00 0.00 33 1015.0
20260905105804 94 44 8.0 12.0 0.00 0.00 0.00 33 1015.0
20260905105606 95 44 7.0 11.0 0.00 0.00 0.00 31 1015.1